GFSGL_925_thetae_021.txt.gz
Theta_e
336 333 331 331 332 331 331 331 330 329 330 329 330 332 330 329 330 330 329 329 328 328 327 326 327 327 328 330 330 330 328 326 325 325 325 325 325 324 323 322 323 321 323
335 333 330 332 331 331 330 330 330 327 327 329 329 330 330 330 330 330 330 327 326 325 328 326 326 328 330 330 330 327 325 325 324 324 324 324 324 323 323 323 322 322 318
334 330 331 332 332 332 330 329 328 327 328 327 329 330 330 330 332 331 330 331 330 324 326 327 327 329 329 331 329 325 325 324 323 323 323 323 323 323 323 322 322 319 321
330 330 333 333 332 332 329 329 327 327 327 328 330 330 331 331 332 332 332 331 330 326 326 328 328 329 330 327 326 325 324 323 323 322 323 323 323 322 322 321 320 319 317
333 331 332 332 332 331 329 328 329 328 328 328 330 330 332 331 330 332 332 331 328 326 329 329 330 331 329 327 326 325 324 324 323 323 323 323 323 322 322 321 321 322 321
332 333 334 333 331 328 328 327 327 328 328 328 330 331 330 327 329 331 332 331 330 329 328 329 330 329 328 327 325 324 324 324 323 323 323 323 323 322 321 320 320 320 320
333 332 335 330 328 327 328 327 328 328 327 328 331 330 326 324 327 331 332 331 330 330 330 329 329 327 326 325 324 323 325 323 323 323 323 322 321 321 320 320 320 320 320
333 332 333 331 329 329 328 328 329 329 329 330 331 331 326 325 329 331 331 331 330 330 330 328 327 326 325 325 324 325 325 324 323 323 323 322 323 321 320 319 319 320 320
332 331 331 330 330 331 329 330 329 330 330 329 332 331 326 326 330 331 331 330 331 330 329 328 327 325 326 325 324 324 324 324 323 323 323 323 322 321 319 317 320 319 320
331 330 330 330 331 330 330 330 330 331 331 331 332 330 326 327 331 331 331 331 331 330 329 329 328 326 325 325 324 324 324 324 323 323 322 322 321 320 316 320 321 319 322
331 331 330 330 329 330 331 331 331 332 331 332 331 329 327 328 330 331 331 331 330 329 329 328 328 327 326 325 325 324 324 324 324 324 322 320 319 320 320 319 325 319 324
331 331 331 331 332 332 332 332 332 331 331 331 331 329 328 329 330 331 331 330 330 329 328 328 328 327 326 326 325 325 325 324 324 323 321 319 319 319 325 322 326 325 323
331 332 333 333 332 331 332 332 331 331 331 330 330 330 328 328 330 331 330 331 329 328 328 328 328 328 326 326 326 325 324 324 323 322 324 323 320 321 324 324 325 327 326
333 332 333 333 331 330 330 332 332 331 332 332 331 330 328 328 330 330 329 330 329 328 328 328 328 327 327 328 326 325 325 324 323 323 323 325 326 325 324 326 327 327 327
333 332 333 334 331 330 329 330 330 332 332 333 331 330 328 328 329 330 329 329 328 327 326 326 327 326 327 325 325 325 325 325 325 325 324 325 326 328 328 326 326 327 326
334 332 332 335 334 332 330 326 327 325 330 333 331 331 330 327 328 330 329 329 326 323 323 324 324 328 328 326 324 324 326 327 328 327 327 328 327 329 324 326 327 328 324
333 334 333 333 334 333 329 325 321 321 327 332 332 331 331 330 327 330 330 329 326 324 326 327 324 326 328 329 328 327 327 328 328 328 328 329 329 327 324 330 329 327 323
332 333 333 333 332 333 332 329 325 322 320 324 331 333 331 330 328 329 330 330 327 326 326 328 329 326 325 326 326 327 327 326 326 328 328 327 326 327 329 329 328 326 323
329 330 330 330 331 330 332 331 329 326 324 321 324 329 330 329 327 329 329 329 328 328 329 328 328 328 328 325 324 323 324 325 324 325 324 328 328 329 327 327 326 326 323
328 328 328 328 327 330 329 331 331 329 327 323 321 327 329 328 327 328 328 328 328 329 329 329 329 329 328 327 328 326 327 326 325 324 323 323 326 324 324 324 323 323 322
328 328 328 328 328 326 327 327 331 330 329 326 323 322 325 328 326 326 327 327 328 328 328 327 327 329 328 326 328 328 328 327 326 326 325 324 323 324 326 324 323 322 322
329 327 328 326 327 326 325 325 326 328 330 329 326 324 322 326 325 326 326 327 327 328 327 326 325 325 326 325 322 324 325 325 326 325 325 325 324 323 323 325 325 324 323
327 328 326 326 326 325 325 325 324 325 325 330 329 326 323 322 321 322 323 323 323 322 323 322 323 322 321 320 319 319 320 323 323 322 321 320 322 324 324 323 324 324 323
332 328 327 326 326 326 325 325 324 323 325 326 326 326 325 322 321 321 320 320 319 319 318 318 318 321 323 323 323 323 322 321 321 323 323 322 322 320 319 321 323 323 323
329 332 333 328 326 325 325 324 325 324 324 324 325 324 324 323 323 323 323 322 322 321 321 320 320 319 317 318 322 322 323 324 323 322 322 323 323 323 322 321 321 321 321
319 329 333 333 329 326 325 325 326 325 323 323 324 324 324 323 323 324 324 324 323 324 324 324 323 323 324 323 323 320 319 322 323 323 323 321 321 321 322 322 322 321 320

GFSGL_925_thetae_024.txt.gz
Theta_e
334 333 333 332 331 331 330 330 330 329 329 329 329 331 330 329 330 329 328 328 327 327 327 328 327 326 327 328 329 328 327 326 325 325 326 328 330 327 326 327 326 324 325
333 332 333 331 331 330 330 330 329 329 330 328 329 331 330 330 329 330 330 328 328 327 327 326 326 327 329 330 329 328 326 326 325 325 324 324 324 324 323 322 321 321 319
332 332 331 331 330 330 330 329 328 326 327 328 328 330 330 330 331 330 330 330 326 323 327 326 326 329 330 327 325 325 325 324 324 324 324 323 322 321 321 320 319 320 320
334 331 330 331 331 331 329 327 327 327 327 327 329 331 330 331 331 331 332 330 328 325 326 328 327 329 329 326 324 324 324 324 323 324 323 323 322 320 319 318 318 318 318
331 331 332 332 331 330 329 328 326 326 327 330 331 331 331 330 329 331 331 329 327 327 329 329 328 328 328 327 325 323 323 323 323 323 323 322 322 321 320 319 318 317 317
332 332 332 332 330 329 328 328 328 328 326 330 329 330 329 325 329 331 331 328 327 328 329 328 329 328 327 326 324 324 323 323 323 323 322 322 322 321 320 319 318 317 316
332 333 332 330 329 327 327 327 327 327 328 330 330 328 325 324 330 331 331 330 329 328 328 328 326 327 326 325 324 324 323 323 323 323 323 322 321 320 321 320 320 319 317
333 335 331 328 327 327 327 326 328 328 329 330 329 327 326 326 330 331 330 330 330 330 326 327 325 325 324 324 324 323 323 323 323 323 323 322 321 321 321 320 319 319 318
332 334 331 329 328 328 327 327 328 328 329 330 330 328 325 327 330 331 330 330 329 328 326 326 325 324 323 324 323 323 322 323 323 322 322 322 321 321 321 320 320 318 317
332 332 330 329 329 330 328 329 329 329 329 329 330 329 325 329 331 331 329 331 329 328 326 325 325 324 324 324 323 323 322 322 322 322 321 321 321 321 320 320 318 318 317
331 330 330 329 330 329 329 330 330 331 330 330 330 328 326 329 330 331 331 330 328 328 327 325 325 324 324 324 324 323 323 323 322 321 321 321 321 319 318 318 317 315 318
330 330 329 330 329 329 330 330 331 331 331 331 329 327 327 329 331 331 331 330 328 327 327 326 325 325 324 324 324 324 323 323 322 321 321 320 320 316 317 323 319 316 317
329 329 330 331 330 330 330 332 331 331 330 329 329 327 327 329 330 331 331 329 328 328 327 326 326 325 325 324 324 324 324 323 322 320 320 319 319 317 317 319 323 324 322
330 330 331 331 332 332 332 331 331 330 329 329 329 327 327 329 330 330 330 329 328 327 327 326 326 325 325 325 325 324 324 323 322 322 320 319 318 318 320 322 323 324 326
331 331 332 332 331 331 331 331 330 330 330 329 329 328 327 328 329 329 330 329 327 327 327 327 326 325 325 324 324 324 324 324 323 322 323 322 322 321 321 321 322 325 325
330 331 331 331 329 329 329 330 330 331 331 331 330 328 328 328 329 329 329 328 327 328 327 326 325 325 324 323 323 324 324 324 324 323 322 323 324 325 325 325 325 326 326
330 331 332 331 330 329 327 325 325 324 325 332 332 330 328 327 329 329 329 327 327 326 326 325 325 325 324 324 324 324 325 324 323 323 323 323 324 324 326 327 327 326 325
331 330 332 332 331 329 328 326 325 324 328 331 332 330 330 328 329 329 328 326 322 323 326 326 326 327 327 324 324 324 325 325 325 324 326 326 326 326 326 325 325 325 324
331 330 330 332 332 331 330 325 322 322 325 327 327 331 330 330 327 329 329 327 323 323 324 325 324 324 327 328 327 325 324 324 325 327 327 327 327 327 327 326 325 324 324
331 331 331 331 332 331 330 328 324 321 321 323 328 331 331 330 327 329 329 328 326 325 324 325 327 328 326 325 326 326 326 326 326 326 325 325 326 326 326 326 325 324 326
328 331 332 329 331 330 329 330 329 326 323 321 323 326 330 330 327 327 328 328 328 329 328 327 325 325 327 328 328 325 323 322 322 323 323 323 323 324 326 326 325 325 325
326 327 328 328 327 327 328 328 329 329 327 325 322 322 326 329 326 325 326 327 328 328 329 329 328 327 327 328 328 327 327 327 326 326 325 325 324 323 324 325 324 323 322
327 326 325 326 326 325 325 326 325 327 328 328 326 323 322 326 325 325 325 325 326 326 327 327 328 327 327 328 329 329 327 324 325 327 327 326 326 325 324 323 322 322 321
328 327 326 325 325 325 325 324 324 323 324 328 328 326 325 323 324 324 324 324 324 324 324 324 325 326 326 326 325 324 323 322 323 321 320 323 324 325 324 324 323 322 322
320 326 330 327 325 325 324 324 324 323 322 322 326 327 326 325 323 323 323 323 323 322 322 322 322 321 321 321 319 318 320 321 321 321 320 320 320 321 321 320 321 321 321
317 319 322 326 330 327 324 324 323 323 323 322 322 322 325 326 325 325 324 323 322 322 321 321 320 320 319 318 317 317 317 319 322 323 323 323 322 321 321 321 320 320 320

GFSGL_925_thetae_027.txt.gz
Theta_e
332 332 332 332 332 331 330 330 330 328 327 328 328 330 330 329 329 329 329 329 328 327 327 327 328 328 327 327 326 325 325 325 324 325 328 329 329 328 325 326 328 329 328
332 332 331 331 330 329 330 330 329 329 329 328 329 329 331 329 329 330 329 327 328 326 326 327 327 326 327 327 328 327 326 325 325 324 325 326 326 326 324 323 323 323 322
332 331 330 330 330 329 330 329 328 328 329 328 328 328 330 329 330 330 330 329 327 326 326 326 325 327 328 327 327 326 325 325 325 325 323 323 322 322 321 320 320 320 321
331 331 331 330 329 329 329 329 327 326 326 328 328 330 330 330 331 331 331 330 328 324 326 326 326 328 327 326 325 324 324 324 323 322 322 321 320 320 320 319 318 319 319
331 330 330 330 330 329 329 327 327 326 327 328 330 330 330 328 329 331 330 329 325 325 327 328 327 327 328 326 325 324 324 323 324 323 322 320 319 319 319 319 318 317 317
333 331 330 331 330 329 328 327 327 326 327 330 330 329 328 325 330 331 328 327 327 328 327 328 328 328 327 325 324 324 323 323 323 322 321 320 319 318 318 318 317 316 316
332 332 331 330 329 328 328 327 327 327 327 330 329 329 324 325 330 331 329 327 328 327 327 327 326 326 326 324 323 323 324 323 323 322 321 321 320 319 318 318 317 317 316
332 332 331 329 328 328 327 327 326 328 329 329 328 327 324 328 331 331 329 328 327 327 327 327 326 325 325 323 323 323 323 323 323 322 322 321 320 319 319 318 318 316 316
334 333 329 328 326 327 327 325 327 327 328 329 328 327 325 328 331 330 329 329 326 326 326 325 325 324 323 323 322 322 323 323 322 322 322 321 320 320 320 319 317 315 315
333 332 329 327 326 327 327 326 328 328 328 329 328 327 325 329 331 330 329 328 326 325 324 324 323 323 323 323 322 322 320 321 322 322 321 321 321 320 320 320 318 316 316
332 332 330 328 327 328 328 328 329 329 329 329 328 326 325 329 331 330 330 329 326 325 324 323 324 323 323 323 322 322 322 322 322 322 321 321 321 320 320 320 318 315 316
331 331 330 328 329 329 328 329 330 330 330 329 327 325 326 329 330 331 330 329 326 325 324 324 324 324 323 323 322 323 323 322 322 321 320 320 321 320 320 320 318 316 315
330 330 329 329 329 328 329 330 330 330 330 328 326 326 327 329 331 331 329 328 326 326 325 325 324 324 324 323 323 323 322 322 321 320 319 320 320 320 319 319 317 316 315
329 329 329 329 329 329 330 330 330 330 329 328 327 326 327 329 330 330 329 327 327 326 325 325 324 324 324 323 323 323 323 322 322 321 321 320 319 317 319 322 323 323 321
329 329 329 330 329 330 330 331 330 330 329 329 328 327 327 328 329 329 329 328 327 326 325 325 324 324 324 322 322 323 323 322 322 321 321 320 319 316 316 319 320 322 324
329 329 330 330 330 330 330 330 330 330 330 329 328 328 327 329 329 329 329 327 327 325 324 323 323 323 322 322 322 322 323 322 322 321 321 319 317 317 317 319 320 321 323
329 329 329 330 330 329 328 329 328 328 330 330 330 329 327 328 329 329 328 327 326 326 323 323 323 323 323 322 321 322 323 323 322 321 321 320 320 321 322 323 322 322 322
330 330 330 330 329 328 327 327 327 325 324 324 330 330 328 327 328 328 328 326 326 326 325 324 323 323 323 322 322 323 324 323 324 323 322 322 322 323 324 324 325 324 324
329 330 330 330 330 329 326 325 325 324 324 328 330 330 329 327 328 328 327 326 324 324 325 325 325 325 325 325 324 324 324 324 323 323 323 323 323 324 324 324 324 324 324
329 330 330 331 330 330 328 327 325 323 322 325 328 329 329 328 326 328 327 326 324 324 324 325 326 326 326 326 324 324 324 324 324 324 324 323 324 326 326 326 325 325 325
329 329 330 330 330 330 330 328 327 324 322 321 323 325 329 330 328 327 328 328 327 326 323 323 324 324 324 324 325 327 325 323 323 323 324 324 325 325 326 324 324 325 325
327 329 328 328 329 329 329 329 328 326 324 322 322 322 327 329 328 328 326 328 328 328 328 326 324 323 325 327 327 325 324 325 325 325 325 324 324 323 322 323 323 324 324
325 326 327 327 327 328 328 328 328 328 328 328 327 324 322 325 328 328 328 326 326 327 327 328 328 328 328 326 324 326 327 327 327 327 326 325 324 324 323 322 322 322 321
326 326 324 325 326 325 325 326 326 327 327 328 327 327 326 324 323 325 326 327 326 325 325 326 326 326 327 327 328 327 325 325 327 328 328 326 324 324 324 324 323 322 322
318 320 324 327 323 323 324 324 323 323 323 325 326 327 327 326 325 324 324 325 325 325 324 324 324 323 322 322 323 324 325 326 326 326 326 326 325 322 321 321 321 322 321
315 317 319 321 325 327 324 323 322 321 321 321 321 323 325 325 325 325 325 324 325 325 325 324 324 323 322 322 321 320 320 319 319 320 321 320 319 319 319 319 319 319 319

GFSGL_925_thetae_030.txt.gz
Theta_e
333 333 332 332 332 332 332 331 331 330 328 327 328 329 329 329 329 328 328 329 328 327 327 326 327 326 327 326 325 322 324 324 324 324 326 328 328 326 328 328 330 331 331
332 332 331 331 331 330 330 329 329 327 327 328 329 330 330 329 329 329 329 328 325 325 326 327 327 327 327 327 326 324 324 324 325 325 326 327 326 325 324 325 327 328 326
331 331 331 330 329 329 329 329 327 328 328 328 327 327 328 329 329 330 330 329 327 326 325 326 326 326 326 326 327 326 324 324 325 324 324 323 323 324 323 323 323 321 321
330 329 329 329 329 329 329 328 328 328 328 326 327 329 329 330 329 329 330 329 328 325 326 326 325 325 327 326 325 325 325 324 323 323 322 321 321 321 322 319 319 319 319
330 329 329 329 329 329 328 328 326 325 326 327 329 329 329 326 329 330 329 330 327 324 325 326 326 326 327 326 325 324 324 323 323 322 320 320 320 320 319 318 318 317 318
330 330 329 329 329 328 327 326 326 326 328 330 329 328 326 326 330 329 328 326 326 326 327 327 327 327 325 325 324 324 324 323 322 321 320 320 320 319 318 318 317 317 316
331 330 329 329 329 328 327 326 326 326 327 329 328 328 324 328 330 329 326 327 327 327 327 327 327 326 325 324 324 323 323 323 322 321 320 320 319 318 318 318 318 317 316
332 331 330 330 328 327 327 327 326 326 327 329 328 326 324 329 330 329 328 327 327 327 327 326 326 325 324 323 323 323 323 322 321 320 320 319 319 318 318 318 317 316 315
332 331 331 328 328 327 326 326 326 327 328 328 327 325 325 329 330 329 328 326 326 326 325 325 325 324 323 323 322 322 322 322 321 321 320 319 319 319 318 318 316 316 315
332 331 329 328 326 326 327 325 327 327 327 327 326 325 325 330 330 329 327 326 325 324 324 324 324 323 322 323 323 322 321 321 321 320 319 319 319 319 319 319 318 316 316
332 331 328 327 326 326 326 326 327 327 328 327 326 325 326 329 330 329 326 325 325 323 323 323 322 322 322 323 323 322 321 321 321 320 319 320 319 319 319 318 317 314 316
331 331 328 327 326 327 327 327 328 328 327 326 325 325 326 329 330 328 328 325 325 324 323 322 322 322 322 322 322 322 322 321 320 320 319 319 320 319 320 319 317 314 317
331 330 329 327 327 328 328 329 329 328 328 326 324 325 326 327 329 329 327 325 325 324 323 322 323 322 322 322 322 322 322 321 320 320 319 320 321 320 320 319 318 315 316
330 329 329 328 328 328 328 329 328 328 328 326 324 322 325 326 328 327 326 325 325 324 323 323 322 322 322 321 320 321 321 321 321 320 320 320 320 319 319 318 317 317 316
329 329 328 328 328 328 329 329 329 328 329 328 327 326 326 326 327 327 327 326 325 325 323 322 322 322 319 319 320 321 322 322 321 321 321 320 320 319 320 321 319 319 321
328 328 328 328 328 328 328 328 329 329 329 328 328 327 326 328 329 329 327 326 325 325 323 323 322 320 320 320 321 320 321 321 321 321 321 320 319 318 317 319 319 321 322
328 328 328 328 328 329 328 328 326 327 329 329 329 328 327 329 329 328 327 326 325 324 323 323 323 322 322 322 321 321 321 322 322 321 321 321 320 318 316 316 317 319 320
328 328 328 329 329 329 328 327 328 326 323 325 329 329 326 328 328 328 327 325 324 324 323 323 323 323 323 323 322 321 321 322 322 321 321 321 320 319 318 319 319 320 321
328 328 328 329 329 330 327 326 326 324 323 324 328 329 327 326 327 327 326 325 323 322 322 322 322 323 323 322 322 321 323 323 322 322 321 320 319 320 322 322 323 323 323
327 328 329 329 329 329 327 325 323 322 322 325 327 329 327 326 326 326 326 325 325 326 325 324 324 324 324 323 323 324 323 323 323 323 322 322 322 322 322 323 323 323 323
327 328 329 329 329 329 329 326 325 324 323 323 324 328 330 329 327 327 327 326 325 325 325 325 325 325 324 325 324 323 324 323 323 323 323 323 322 322 323 323 324 325 325
327 327 328 329 329 329 329 329 328 327 326 324 323 322 324 328 327 326 326 327 327 327 326 325 324 325 325 325 325 325 325 325 324 323 323 323 323 323 323 323 324 324 324
324 326 327 327 328 328 328 329 329 329 328 328 325 322 321 323 327 328 328 327 326 327 327 327 327 325 323 323 323 324 324 323 323 324 324 324 323 323 323 322 322 322 321
323 323 323 325 326 326 327 327 328 328 329 329 328 327 326 325 323 324 326 327 328 327 326 326 326 326 327 326 326 325 324 324 325 326 325 324 323 323 323 322 321 321 321
318 320 322 324 323 320 322 322 323 324 324 325 326 326 326 325 324 325 325 324 325 325 326 326 326 325 324 324 324 324 324 325 327 326 324 324 324 325 324 324 323 322 321
308 309 311 312 315 317 319 320 321 321 322 321 320 319 319 323 324 324 323 323 323 324 324 324 324 325 325 325 324 324 323 322 322 322 324 325 324 324 323 323 323 322 321

GFSGL_925_thetae_033.txt.gz
Theta_e
337 336 335 335 335 334 335 334 334 333 333 331 330 330 331 332 331 332 332 332 329 327 327 328 329 329 329 328 328 323 327 328 329 328 329 328 327 327 327 329 330 332 332
335 335 335 334 334 334 334 333 332 332 330 330 330 331 332 332 332 331 331 330 327 327 325 326 329 329 330 330 328 325 327 328 328 328 328 326 325 327 327 327 328 329 326
334 334 334 333 333 333 332 331 331 330 330 330 331 331 330 332 332 332 330 329 328 326 325 326 328 329 330 330 329 328 327 328 328 327 324 324 323 324 324 323 323 323 325
333 332 332 332 332 332 331 330 330 330 330 330 330 331 332 331 329 330 330 329 329 327 325 325 328 329 329 329 329 329 328 328 327 326 323 323 322 322 322 320 319 319 319
330 331 332 331 331 331 330 329 329 330 329 329 331 331 330 326 329 329 330 330 327 325 326 326 327 329 327 327 328 328 328 327 325 324 322 322 320 321 320 319 318 317 317
331 331 331 331 331 331 330 329 328 328 331 330 331 330 328 328 330 328 329 328 326 325 326 327 326 326 326 325 325 327 328 326 325 323 322 322 321 320 319 318 317 317 316
331 332 331 331 331 330 328 329 329 330 329 329 330 328 328 329 329 327 327 327 327 326 327 326 326 325 325 325 324 325 325 325 325 324 323 321 320 319 319 318 318 319 317
332 332 332 331 330 329 328 329 329 327 327 328 329 328 329 330 329 328 327 328 327 326 326 326 325 324 324 323 324 323 323 323 323 324 323 321 320 319 319 319 318 316 315
333 333 332 331 330 329 329 330 328 326 327 328 328 328 329 329 329 327 327 326 326 325 325 325 325 324 324 323 323 322 322 322 323 322 322 320 319 319 319 319 317 318 317
334 333 331 329 329 329 329 329 327 327 329 329 327 328 328 329 328 327 326 326 325 324 324 324 325 323 323 323 322 323 321 319 320 320 319 319 318 319 319 319 319 321 320
334 333 330 329 328 329 329 329 329 330 330 329 328 328 327 329 328 327 326 325 324 323 322 323 323 323 323 323 322 322 320 320 319 318 318 318 318 318 319 321 321 321 320
334 332 330 329 328 329 329 329 330 331 330 329 329 326 327 329 328 327 326 325 324 324 321 322 321 322 323 323 322 322 321 320 319 319 320 320 321 319 320 320 319 319 321
334 332 331 329 329 330 330 331 331 331 330 329 328 327 324 326 328 327 325 325 324 322 320 321 321 321 322 322 322 322 321 321 321 320 320 320 320 322 320 318 316 317 320
333 331 331 330 330 330 331 331 331 331 330 328 328 326 325 326 327 326 325 324 323 322 322 321 321 321 322 322 321 321 323 323 323 321 322 321 321 321 321 320 319 318 318
333 330 331 330 331 331 331 331 332 331 331 330 328 327 327 325 326 326 325 323 323 321 322 321 319 318 318 319 321 323 322 323 324 323 323 322 323 323 323 322 322 320 319
332 331 331 331 331 331 329 327 329 329 328 328 327 328 327 329 327 327 326 325 324 321 322 322 321 321 322 323 323 324 324 324 324 323 323 323 323 323 323 322 321 320 319
332 332 331 331 331 331 330 331 330 328 328 328 327 326 327 329 328 328 326 325 324 323 323 323 322 322 322 323 324 324 324 324 324 324 324 323 323 323 320 321 321 322 323
332 331 332 331 331 331 330 331 331 330 329 329 328 326 327 328 328 327 326 324 323 325 325 325 325 324 323 323 324 324 325 325 324 324 324 324 323 321 319 320 321 322 323
331 330 331 332 332 332 330 329 330 329 328 329 326 326 326 327 327 327 326 325 324 324 324 324 324 325 326 326 326 325 324 325 325 325 325 324 324 323 322 320 320 320 321
330 330 331 332 331 331 331 328 328 327 328 328 331 328 325 326 322 323 324 327 326 325 325 325 325 325 325 325 325 324 322 325 325 325 324 324 323 322 322 322 324 325 325
329 329 329 331 331 331 331 330 328 326 327 329 330 329 327 327 327 324 325 327 327 327 327 326 326 326 326 326 326 324 323 326 326 326 325 325 324 324 325 325 325 325 325
328 329 329 331 331 331 331 331 330 329 329 328 328 325 329 328 330 328 327 327 327 327 327 327 327 327 327 327 326 326 326 327 326 326 326 326 326 326 326 326 325 325 326
328 328 329 330 331 331 331 332 332 331 331 330 328 324 323 326 329 330 330 329 328 328 328 327 327 327 327 327 327 327 326 326 326 326 326 326 326 326 325 325 325 326 327
326 327 328 329 329 330 330 331 331 330 331 331 330 328 325 324 326 327 329 330 329 329 329 328 328 328 327 327 326 326 326 326 326 325 325 324 325 324 324 324 325 326 326
318 320 324 324 324 325 325 325 325 326 326 326 327 328 328 327 326 326 326 326 327 328 328 328 328 328 329 328 328 327 327 326 325 326 326 326 326 325 324 324 324 325 325
306 308 311 313 314 315 314 314 314 315 315 316 317 318 319 320 321 321 322 322 323 324 325 325 326 326 326 326 327 327 327 326 326 325 325 326 327 327 327 327 327 327 327

GFSGL_925_thetae_036.txt.gz
Theta_e
345 344 344 343 342 340 339 339 340 339 338 337 335 333 332 333 334 334 334 333 333 331 327 327 331 331 332 330 329 328 330 331 334 331 332 331 332 332 331 331 329 331 331
343 343 342 339 339 339 339 339 338 337 334 332 331 331 332 333 333 333 333 332 331 327 326 325 329 330 331 331 330 326 330 331 330 331 330 327 328 328 327 329 330 330 331
340 339 339 339 339 338 338 337 335 333 331 331 332 332 332 332 333 333 333 332 329 326 325 326 329 330 331 332 330 329 330 331 330 330 327 325 325 326 326 326 327 326 325
337 337 338 337 337 336 335 335 333 331 331 332 332 331 332 332 330 331 333 332 330 327 327 328 329 330 331 332 332 331 330 330 329 328 325 324 323 322 323 321 321 321 321
334 333 333 334 334 334 333 332 331 331 331 330 331 332 332 330 329 333 332 330 329 329 326 324 329 330 330 331 331 331 330 330 329 327 324 322 321 322 321 320 319 318 318
330 332 333 334 334 333 332 332 331 330 330 330 331 332 332 330 329 330 332 331 327 326 328 326 329 327 326 327 329 330 331 329 329 327 324 322 322 321 320 319 318 318 316
331 332 333 333 333 333 331 330 330 331 331 331 332 332 333 331 328 327 328 330 326 326 326 327 326 327 327 327 326 328 329 328 329 328 325 323 321 320 320 319 320 320 318
331 332 332 333 332 331 330 329 330 331 331 332 332 332 333 329 329 327 330 330 328 326 326 326 326 328 328 326 327 328 327 327 327 327 326 323 321 320 321 321 321 317 316
332 332 332 332 331 330 329 330 330 331 331 331 332 332 333 330 328 327 329 330 326 326 326 325 325 327 324 325 327 328 328 325 326 326 325 323 322 321 320 319 317 317 316
332 332 332 330 330 330 329 330 331 330 329 330 332 332 330 329 327 327 328 326 325 324 324 324 324 325 324 324 327 326 325 324 323 323 322 321 320 320 319 319 318 318 318
333 332 332 329 328 329 330 331 331 331 331 331 332 332 330 330 327 326 326 325 324 324 323 323 323 324 324 325 326 325 324 323 321 319 319 319 319 318 319 319 320 320 320
333 332 331 329 329 330 330 331 331 332 332 332 332 329 329 326 327 326 325 325 326 326 323 322 323 323 323 324 325 322 320 321 320 319 318 318 318 319 320 321 322 323 324
332 331 331 330 330 331 331 332 333 333 333 333 332 331 328 325 326 326 324 324 324 324 322 322 321 322 322 323 322 321 320 320 320 320 320 320 320 323 323 323 324 324 322
333 331 331 331 331 331 331 333 334 333 333 332 332 331 329 325 325 324 324 323 322 322 321 320 321 322 322 321 321 321 322 321 322 322 322 322 323 323 324 324 323 321 321
334 332 331 331 332 332 332 332 334 333 331 331 332 331 328 327 325 325 324 326 324 321 320 320 320 320 319 319 321 323 325 324 324 324 324 324 324 324 324 322 320 317 319
333 332 329 330 331 331 331 330 329 329 329 330 330 331 329 329 327 325 324 325 322 322 323 323 322 320 320 321 324 323 325 324 325 325 324 325 324 325 324 323 322 320 320
331 332 331 330 329 330 331 332 331 327 328 327 327 328 329 328 327 326 324 323 322 323 325 324 324 323 323 324 325 325 326 326 326 326 326 325 325 325 324 324 324 322 321
332 332 330 330 329 328 331 332 331 332 332 329 325 325 328 328 328 326 324 322 322 325 325 325 325 325 326 326 326 326 326 326 326 326 326 326 325 325 325 325 324 323 322
332 331 329 330 330 329 328 330 330 331 332 332 325 326 327 328 327 326 324 325 326 327 327 327 327 326 327 327 327 327 327 327 327 327 327 327 326 326 325 323 322 322 322
330 329 330 330 331 331 328 329 330 330 330 332 331 328 323 323 322 323 325 326 325 326 326 326 326 327 327 327 327 328 328 328 327 328 327 327 326 326 324 323 320 320 321
329 331 331 331 330 330 329 327 326 327 329 330 331 329 326 330 329 326 328 329 328 328 328 328 328 328 327 328 328 328 327 327 327 327 327 327 327 327 326 324 323 323 324
328 329 329 329 330 330 331 330 329 327 327 328 330 327 327 327 330 330 329 330 330 330 329 329 328 328 328 328 329 329 328 327 327 328 327 327 326 325 324 324 325 325 326
328 328 328 328 329 331 332 331 331 330 328 328 328 327 327 330 332 332 331 331 330 329 329 330 330 329 329 328 327 328 328 328 329 329 328 328 327 327 327 327 326 326 326
330 330 331 331 331 330 331 332 332 332 332 329 329 329 329 330 331 331 332 333 333 332 332 331 330 329 328 329 329 329 328 328 326 325 326 326 326 326 326 325 325 325 325
321 330 330 330 331 330 331 331 332 332 332 333 333 332 332 331 330 329 329 329 330 332 332 332 332 332 332 332 330 329 329 327 327 327 328 328 328 327 326 325 325 325 324
305 309 313 317 317 317 318 318 317 317 318 319 320 321 323 321 321 322 322 322 325 327 328 328 328 326 324 323 324 326 327 328 328 328 327 327 327 327 327 327 327 327 327

GFSGL_925_thetae_042.txt.gz
Theta_e
348 349 351 351 352 352 350 347 346 345 344 344 341 338 336 335 335 336 334 334 332 331 331 333 330 326 329 329 331 330 329 329 330 331 328 329 330 330 330 330 327 329 331
349 350 352 350 349 347 345 345 343 342 340 339 337 335 336 334 332 335 333 335 334 334 333 332 324 324 331 330 330 330 330 329 330 331 330 330 330 330 332 332 331 331 329
349 348 348 346 344 343 343 341 340 338 338 336 334 333 332 333 333 335 335 334 334 332 333 327 324 325 327 331 330 330 330 327 330 331 330 329 329 329 330 330 329 327 328
345 346 344 344 344 343 341 340 339 336 334 332 332 332 332 332 333 333 334 334 334 332 328 328 327 328 331 331 330 330 329 329 331 328 326 326 326 326 326 324 323 325 326
344 344 344 343 342 341 339 337 334 334 331 333 332 332 332 331 332 334 335 334 333 331 329 328 328 330 331 332 331 331 328 330 328 326 325 324 323 324 323 321 320 321 322
342 342 342 340 339 337 335 332 332 333 331 331 331 332 331 329 329 331 332 330 330 329 328 328 329 328 330 330 330 330 329 330 327 325 324 324 323 322 321 321 320 321 319
338 337 335 334 333 332 332 332 332 330 330 330 331 333 334 328 329 332 332 331 327 328 326 328 330 330 330 328 329 329 330 331 328 325 324 323 322 322 321 321 321 321 320
334 333 333 334 333 333 332 334 329 329 331 332 333 334 331 328 327 330 331 329 326 326 328 327 330 330 330 330 331 330 329 329 327 325 324 322 323 322 322 322 320 319 319
332 334 334 334 333 332 333 331 331 333 332 334 334 334 330 328 328 330 331 329 326 325 325 328 330 327 327 329 330 330 329 328 329 326 325 323 323 322 322 321 320 320 319
333 334 333 333 332 332 332 331 332 332 333 332 333 333 329 327 328 330 330 329 326 326 326 326 329 327 327 330 329 328 327 326 327 324 323 323 322 323 322 322 320 320 320
333 332 332 332 332 331 330 330 332 332 332 333 333 331 329 327 327 327 327 327 325 325 325 325 326 325 328 329 328 327 326 326 326 324 322 322 323 321 322 321 321 320 319
332 331 333 330 329 332 329 330 331 332 332 334 331 330 329 327 326 326 327 326 325 325 324 324 324 326 327 327 327 326 325 324 323 321 320 320 321 321 321 321 321 320 320
333 332 331 331 331 333 330 330 332 331 333 335 333 330 328 326 326 325 325 326 327 326 324 324 324 325 325 325 324 324 324 322 321 320 319 320 320 321 321 320 320 320 321
333 332 330 331 333 330 332 333 333 333 335 333 333 330 328 326 325 324 324 324 324 323 323 322 324 324 324 322 322 322 322 321 320 320 320 320 321 320 320 320 320 319 320
332 332 332 332 332 333 331 333 331 332 333 334 333 330 327 327 326 326 324 322 321 321 321 322 321 321 320 322 323 322 322 321 320 320 320 320 320 320 320 320 321 322 323
333 332 332 333 333 333 330 327 328 329 331 332 332 331 329 328 326 326 324 323 322 321 321 321 321 322 323 324 324 323 322 322 321 321 320 322 322 321 322 323 325 325 323
332 331 332 333 334 334 333 331 327 327 330 331 331 330 329 326 325 324 323 322 322 323 322 321 321 322 322 324 324 323 323 323 323 323 324 324 325 324 325 325 325 324 320
331 332 330 333 333 333 332 331 330 329 330 326 328 328 327 325 325 323 322 323 323 325 324 323 323 323 323 324 326 325 325 325 325 325 325 325 325 325 325 325 323 322 321
330 328 331 333 332 332 332 332 332 331 329 324 324 326 325 325 324 323 323 325 326 325 325 325 324 323 324 326 327 327 326 326 326 326 326 326 326 327 327 326 324 323 323
329 329 331 331 331 331 333 331 333 332 330 329 327 323 324 323 322 322 323 327 328 327 326 326 325 326 326 327 327 326 326 327 328 328 328 328 328 327 327 326 323 325 324
329 330 330 331 332 331 331 331 334 333 331 332 329 325 326 325 324 324 326 328 329 328 328 327 327 327 327 327 327 327 328 328 328 327 326 325 326 327 328 325 326 326 325
329 330 330 330 331 332 332 331 333 333 332 331 330 327 327 327 326 326 327 327 328 329 329 328 327 327 328 327 327 328 328 327 327 328 328 327 328 328 329 327 327 326 326
331 327 330 330 330 331 331 331 333 332 330 329 329 327 328 329 329 329 330 330 330 330 327 328 327 326 326 327 326 326 327 327 328 328 328 329 328 328 328 329 328 328 328
329 329 329 329 330 330 332 332 331 332 331 329 331 330 330 330 328 325 323 323 317 318 318 318 318 319 321 321 320 321 324 326 326 328 329 330 330 329 327 327 327 327 327
326 323 330 328 328 332 330 326 325 326 324 324 325 326 323 322 320 320 319 315 312 311 309 309 309 313 318 320 316 320 322 324 326 327 327 327 328 329 329 330 330 330 330
312 311 311 315 319 317 315 314 314 314 312 311 311 311 311 310 309 308 309 308 307 304 302 302 303 304 306 307 309 314 317 318 320 322 322 322 322 322 322 321 322 322 322

GFSGL_925_thetae_045.txt.gz
Theta_e
340 340 343 348 352 349 346 343 342 342 343 344 342 343 341 339 338 336 334 334 334 333 331 331 331 327 326 327 328 330 329 328 325 329 326 327 324 326 327 329 327 325 329
347 348 349 349 352 348 346 347 344 346 345 343 342 339 338 334 333 334 334 333 333 331 331 331 331 326 325 329 329 329 329 328 328 328 329 330 330 329 330 328 329 330 329
346 348 351 350 350 348 348 347 346 344 342 340 338 333 333 334 334 334 333 332 334 333 332 331 330 324 324 329 330 330 330 329 329 329 329 329 329 330 330 329 330 328 328
348 349 346 344 345 345 344 342 340 339 338 337 334 333 333 333 333 334 335 334 333 333 332 331 326 325 325 328 330 329 329 329 329 328 327 327 326 327 329 326 326 327 328
344 344 343 343 342 340 340 338 338 335 333 332 332 332 332 333 334 333 333 334 333 332 329 328 327 328 328 330 329 329 329 329 327 326 325 325 324 324 324 323 322 326 326
344 343 343 341 340 339 338 335 333 332 332 333 332 331 331 329 328 331 331 330 332 330 329 328 327 328 329 330 328 329 328 329 326 325 324 324 324 323 323 323 322 322 320
342 341 341 340 339 337 332 330 330 332 331 332 331 331 329 328 330 332 330 330 329 329 328 328 329 329 329 329 329 329 329 329 329 326 324 323 322 323 323 322 323 322 321
339 338 337 336 334 330 330 331 331 331 332 333 333 331 328 328 331 331 331 327 327 328 327 329 329 330 328 329 329 330 329 328 327 325 324 323 323 323 324 322 321 322 321
333 334 333 331 330 332 333 331 331 331 333 333 332 331 328 327 329 331 330 326 326 326 328 329 328 328 329 330 329 329 327 326 326 325 324 324 323 324 323 323 321 320 320
333 333 332 332 332 332 332 332 332 331 331 332 332 330 328 327 329 331 329 327 326 326 326 328 327 326 328 330 328 328 327 325 324 323 324 323 323 323 324 323 321 320 320
334 333 333 332 331 332 331 332 331 332 332 332 330 328 327 327 329 329 329 327 326 326 326 328 327 326 328 328 327 327 327 325 324 323 322 322 322 322 322 321 321 320 320
333 332 332 332 332 331 331 331 332 332 332 331 330 328 327 326 326 327 327 326 325 325 325 325 325 327 329 328 327 326 327 325 323 321 321 321 321 321 321 321 320 320 320
332 332 332 332 331 330 330 332 332 332 332 330 329 327 326 326 326 326 326 325 325 325 324 324 326 327 328 327 326 326 326 324 322 321 321 321 321 322 321 321 321 320 320
332 332 331 333 332 330 330 330 330 332 331 330 329 327 326 324 324 324 326 326 325 324 323 325 325 325 325 325 324 324 324 323 322 321 320 321 322 321 321 321 321 320 320
332 332 332 333 331 331 331 331 332 331 332 332 329 327 326 325 323 324 324 322 322 323 323 323 322 322 322 322 322 322 322 321 321 321 320 321 321 321 320 320 320 319 319
331 332 333 332 330 330 328 327 330 331 332 331 330 328 326 326 325 324 322 323 322 322 322 321 321 321 322 323 322 322 321 321 321 321 321 321 320 320 320 320 320 322 320
330 331 332 333 329 327 326 326 322 325 331 331 330 328 327 326 325 324 322 322 321 322 321 321 322 323 324 324 322 321 321 321 321 321 321 321 321 320 321 322 322 325 325
330 332 332 334 332 330 327 327 328 327 325 324 328 327 326 325 324 322 322 322 322 322 322 322 322 323 324 324 323 322 322 323 322 321 321 322 322 321 322 324 324 325 325
330 332 332 333 333 331 329 328 329 326 322 320 323 324 324 324 322 322 323 324 324 323 322 322 322 322 323 325 324 324 323 324 324 325 323 324 325 324 324 324 325 323 320
330 331 332 333 332 331 332 330 328 325 322 323 322 323 323 322 321 322 323 325 325 325 324 323 323 323 324 325 326 326 326 325 325 325 325 325 325 325 325 326 325 324 324
332 332 332 331 331 331 331 331 328 327 326 324 322 324 323 322 321 322 324 328 328 326 325 324 323 323 324 326 327 327 326 326 326 326 326 325 326 328 327 327 326 327 326
329 331 331 331 331 332 332 332 330 329 329 325 324 325 324 323 323 323 325 327 327 327 326 327 326 327 327 327 328 327 327 328 328 328 328 327 326 326 326 327 327 327 326
329 329 330 331 331 331 331 333 331 331 329 326 324 325 325 325 325 326 326 324 324 323 328 327 327 325 324 325 324 326 327 327 327 327 327 328 328 328 327 328 328 328 328
330 330 330 330 331 331 331 330 330 329 328 326 326 326 322 319 316 315 314 314 312 310 313 315 316 317 318 320 321 323 325 325 327 326 327 328 329 329 328 328 327 327 327
324 326 327 328 325 322 323 322 321 325 327 325 322 316 316 315 311 308 306 307 308 305 305 308 309 311 313 314 316 317 319 322 323 324 324 324 323 323 322 319 318 317 316
313 314 317 323 316 311 312 311 308 309 309 308 307 305 304 304 303 302 301 299 298 299 300 301 301 301 303 304 307 310 311 312 315 317 317 316 316 313 312 310 308 307 305

GFSGL_925_thetae_048.txt.gz
Theta_e
329 333 338 341 343 344 346 348 347 345 344 342 341 341 340 341 341 338 337 336 336 335 333 333 332 331 329 327 328 329 329 326 321 327 327 328 329 329 328 329 328 325 328
335 339 344 344 344 344 346 347 345 342 341 341 341 340 342 340 338 337 335 334 333 334 333 332 331 330 327 326 328 329 329 327 327 324 328 327 327 327 327 327 328 326 328
341 341 342 345 346 346 346 344 341 341 342 343 342 342 340 338 336 333 333 333 333 333 332 330 330 329 325 326 329 329 329 328 327 327 327 326 327 329 326 326 327 330 328
344 346 347 349 347 346 344 343 343 343 343 342 340 338 335 334 332 333 333 333 332 333 332 331 331 329 324 324 329 329 329 328 327 328 327 326 326 326 327 325 326 327 328
346 346 345 346 345 345 344 343 343 343 339 338 336 334 333 333 333 334 334 333 333 333 332 331 330 326 326 325 328 329 327 328 327 326 326 325 324 325 324 324 324 326 326
343 342 342 341 341 340 342 341 339 338 335 332 332 332 333 333 333 333 332 332 332 331 329 328 327 327 327 328 329 329 328 328 326 325 324 325 325 324 324 324 323 324 322
342 341 341 340 338 337 336 335 332 332 332 332 331 331 330 329 330 330 330 329 331 329 328 327 327 328 328 329 329 329 328 328 328 327 325 324 323 324 324 323 323 323 321
341 340 339 338 336 333 333 332 332 332 332 331 330 329 328 330 331 330 329 328 328 327 327 328 329 328 328 329 329 329 328 328 327 327 326 326 325 324 324 323 323 322 321
339 338 337 336 331 330 330 331 332 332 331 330 330 328 327 330 330 330 328 326 328 328 329 329 329 328 329 328 328 327 326 326 326 326 325 324 324 323 324 323 322 322 320
334 334 333 331 329 330 331 331 331 331 332 331 329 327 327 329 330 330 327 326 325 327 328 327 327 328 329 329 329 327 325 325 324 323 323 323 323 323 324 324 323 321 320
332 331 330 330 331 331 331 331 332 331 331 330 328 327 327 329 330 329 328 325 325 325 327 327 326 326 329 328 328 327 326 324 324 323 322 322 322 322 323 323 323 322 321
331 331 331 331 332 331 331 331 331 331 330 327 326 326 327 328 328 328 328 327 326 326 327 326 325 326 328 327 327 326 325 324 323 322 321 321 321 320 321 322 322 321 321
331 331 331 331 331 331 331 331 331 331 328 326 325 325 324 325 326 327 326 326 325 325 326 325 325 328 328 327 326 326 325 323 322 321 321 321 321 321 321 320 320 320 320
331 331 331 331 331 331 331 331 331 329 328 327 325 323 323 324 325 326 325 325 325 324 324 326 327 327 327 326 324 324 324 323 322 321 321 321 321 321 321 320 319 319 320
330 330 331 330 330 330 330 329 330 330 330 328 326 325 322 322 323 324 325 325 324 324 324 324 324 323 322 322 323 323 323 322 321 322 321 321 321 321 321 321 321 320 320
331 330 330 327 327 326 326 325 329 330 330 329 328 326 325 324 323 323 324 324 323 323 323 322 322 321 322 322 322 321 321 321 321 321 321 321 321 321 321 320 321 321 320
331 331 329 327 326 325 325 325 320 325 331 330 328 327 325 324 323 322 322 321 321 322 322 321 321 322 322 322 322 321 320 320 320 321 321 321 321 321 321 320 320 321 321
331 331 329 328 327 326 326 325 325 326 324 324 326 326 325 325 322 322 321 321 322 322 322 322 322 323 323 323 322 320 320 320 320 321 321 321 321 321 321 322 321 321 323
331 331 330 328 327 327 327 327 325 323 320 321 323 325 324 323 322 322 321 321 322 322 322 322 322 323 324 323 322 321 321 322 321 321 321 321 322 321 321 322 323 324 324
330 331 332 330 328 327 327 325 322 321 321 322 321 321 321 321 320 321 323 324 323 322 322 322 322 322 323 325 324 323 322 323 323 323 322 322 324 322 322 322 323 324 324
331 331 332 330 328 327 327 325 323 322 323 322 321 322 322 321 321 321 322 326 325 325 323 323 323 323 323 324 326 326 325 324 324 324 325 325 324 325 324 324 324 325 326
330 330 331 330 329 329 327 325 324 323 322 321 321 321 321 321 321 321 324 324 325 325 325 323 323 323 324 325 326 327 326 326 325 325 326 326 325 325 325 326 327 326 326
330 330 330 330 330 329 328 327 326 325 323 322 321 322 323 322 323 321 318 321 321 323 323 323 322 322 321 322 325 325 326 326 326 325 325 326 327 327 327 327 326 326 326
329 330 329 329 329 329 329 328 327 325 324 323 323 321 321 318 315 311 310 310 314 315 315 316 316 317 318 320 321 323 323 323 323 325 326 325 324 324 324 324 322 320 318
327 325 323 325 324 325 327 326 325 325 323 319 316 313 310 308 306 305 305 306 308 308 308 309 311 311 312 313 314 316 319 320 321 321 321 320 317 314 313 311 310 309 307
320 315 314 316 314 314 315 314 313 311 308 306 306 305 304 302 301 301 300 300 302 303 303 303 304 306 306 307 310 313 315 314 314 314 311 311 309 305 304 302 301 300 300

GFSGL_925_thetae_051.txt.gz
Theta_e
318 323 330 331 332 333 334 335 338 342 344 346 346 344 341 341 340 340 339 338 337 337 335 334 333 331 330 329 329 329 328 326 320 325 327 328 330 325 327 328 327 325 324
319 321 327 330 333 336 338 338 342 344 344 345 343 341 340 340 340 340 338 337 336 335 334 333 332 331 330 328 327 328 328 327 325 323 324 326 327 327 327 328 327 326 326
322 325 332 336 338 340 342 344 345 344 344 342 341 340 340 340 340 338 335 335 334 332 333 333 332 331 329 327 327 328 328 327 326 327 325 324 326 326 326 326 328 328 328
333 335 339 340 341 342 343 344 344 343 341 341 340 340 341 340 338 336 333 332 332 333 332 332 331 330 329 325 327 328 328 327 326 326 326 325 326 326 325 324 324 323 327
340 342 343 343 342 342 343 343 342 341 341 342 340 341 337 336 335 333 333 332 332 332 332 331 330 330 329 325 324 328 328 327 326 325 325 325 324 324 325 324 321 322 323
342 342 343 343 343 344 342 341 341 342 342 341 339 337 335 333 333 333 333 333 332 332 331 331 331 329 327 325 325 328 328 327 326 325 326 324 325 324 324 324 321 323 322
341 341 341 341 341 342 341 341 339 339 338 336 334 333 333 333 333 333 332 331 331 330 329 328 327 327 327 327 327 328 328 327 327 327 325 324 324 324 324 323 324 324 321
340 340 339 338 337 335 334 335 336 336 334 331 331 331 331 331 330 329 328 329 330 329 328 327 327 328 328 328 328 328 327 327 326 326 325 326 326 325 325 323 323 322 323
339 338 337 335 334 333 332 331 331 331 330 330 329 329 328 329 329 329 328 327 327 327 327 328 328 328 328 328 328 327 326 326 326 326 326 326 325 325 325 324 322 321 320
337 337 333 333 332 331 331 331 331 331 329 328 327 327 328 329 330 328 326 327 327 327 328 328 328 328 328 328 328 327 325 325 325 324 324 324 324 324 324 324 323 322 321
337 333 331 331 331 331 331 331 331 329 328 326 326 326 328 329 329 328 326 326 326 327 327 326 327 327 328 328 328 327 326 324 323 323 322 322 322 322 323 323 323 323 321
332 331 330 329 329 329 330 330 330 329 327 325 324 325 326 329 328 327 327 325 324 325 327 325 325 327 328 328 327 326 324 323 322 322 321 321 321 321 322 322 322 322 322
329 329 330 330 330 330 330 329 328 328 326 324 324 323 324 326 327 328 327 326 325 326 326 325 325 327 327 327 326 325 324 323 322 321 320 321 321 322 322 322 321 321 321
329 329 330 330 330 330 330 329 328 327 325 324 322 322 323 324 326 326 325 325 325 325 325 325 326 327 326 326 324 324 323 322 322 321 321 321 321 321 321 321 320 320 320
329 329 328 329 329 328 328 328 328 329 328 325 323 322 321 321 324 325 325 324 324 324 325 324 324 324 321 321 322 323 323 322 322 321 321 321 321 321 320 320 320 320 320
328 328 327 327 326 324 324 324 328 329 329 328 327 325 323 324 323 324 324 324 324 324 323 322 322 322 322 322 322 321 322 322 321 321 321 321 321 321 320 320 320 319 319
328 327 326 325 324 322 322 323 321 325 328 327 326 325 324 323 323 324 324 324 322 323 323 322 322 323 323 323 322 322 321 321 321 321 321 321 321 321 321 321 321 321 320
328 328 326 325 325 324 324 324 324 325 322 321 325 324 323 322 322 322 321 321 321 323 323 322 322 322 322 322 321 321 320 320 320 321 321 321 321 321 320 321 320 321 321
328 327 326 326 326 326 324 325 325 324 321 320 322 324 323 322 321 320 321 322 322 322 322 323 322 323 323 322 321 320 320 320 320 320 321 321 321 321 321 321 321 321 321
329 329 328 327 325 324 324 323 322 322 321 321 320 318 319 320 320 321 322 322 322 322 322 322 322 323 323 324 322 321 321 322 321 320 321 321 321 321 321 321 321 322 323
329 328 328 326 326 324 323 323 323 324 323 322 317 319 319 319 320 321 323 324 323 322 322 322 322 322 322 323 324 323 322 322 322 323 322 322 322 323 322 322 321 322 323
329 328 327 326 326 324 323 322 323 323 322 320 319 318 320 321 321 320 319 322 324 324 323 322 322 322 323 323 325 325 325 325 324 324 324 324 324 324 324 324 324 324 325
328 328 328 328 327 325 324 322 322 322 322 320 318 320 321 321 319 316 313 315 320 321 321 322 322 323 322 322 323 325 325 325 325 324 325 325 325 326 326 325 325 324 322
328 328 328 327 326 325 325 322 321 321 321 321 320 320 320 316 314 311 310 310 313 314 315 315 316 316 317 318 320 321 321 321 322 324 324 324 323 324 324 322 319 317 317
328 328 328 328 327 326 323 322 321 322 319 316 313 312 310 309 307 305 304 305 306 308 307 309 309 310 311 311 311 315 318 320 321 321 322 321 320 318 316 313 309 305 304
324 323 322 324 325 324 324 319 313 313 310 308 306 305 304 302 300 301 301 302 302 301 300 300 300 302 305 307 306 308 311 312 311 312 311 309 307 303 302 300 299 299 298

GFSGL_925_thetae_054.txt.gz
Theta_e
319 325 325 322 328 333 335 335 334 332 332 338 341 346 345 344 343 341 341 340 339 337 335 335 334 333 331 329 328 327 327 326 326 323 326 325 325 326 327 327 326 327 327
319 326 328 321 325 330 332 333 333 334 337 340 344 345 345 342 341 340 339 339 338 336 336 334 333 331 330 329 328 328 328 326 324 325 324 324 326 326 327 327 326 326 326
320 331 325 321 327 330 331 333 335 338 341 343 345 344 342 341 340 339 339 338 337 336 335 334 333 331 330 329 328 327 327 327 325 325 324 324 325 326 326 326 327 328 327
327 332 322 325 330 332 334 335 337 340 342 343 344 343 341 340 339 340 336 335 335 334 333 332 332 331 331 329 327 326 327 326 325 326 325 324 324 325 325 323 324 324 326
335 331 329 332 334 336 337 338 340 342 343 343 341 340 340 339 340 337 335 333 332 332 332 331 332 331 330 329 326 327 327 326 325 325 324 323 324 325 324 324 323 324 325
337 336 337 337 338 339 340 341 341 341 342 341 340 339 340 340 336 335 332 331 331 331 331 331 330 329 329 328 324 324 327 327 325 326 325 324 325 324 324 323 322 322 323
339 340 340 338 338 339 341 340 340 340 339 339 339 340 337 335 334 332 332 332 332 331 330 330 330 329 328 328 325 325 327 327 327 326 326 324 324 324 323 322 322 322 321
340 339 339 339 338 338 339 338 337 338 339 338 337 334 333 332 333 333 331 330 329 329 329 328 327 327 327 326 327 327 327 327 326 325 327 326 325 326 324 323 323 323 323
337 338 338 338 337 336 334 333 333 335 334 332 332 331 332 331 329 328 328 328 328 327 327 327 327 327 327 327 327 327 326 326 325 325 325 325 325 326 324 323 322 323 321
338 338 337 335 334 333 332 331 332 332 330 329 328 328 328 328 328 328 327 327 326 327 327 328 328 327 327 327 327 326 324 323 325 325 325 325 325 325 324 323 322 322 321
337 335 333 333 332 331 331 331 329 327 326 325 326 326 327 329 328 326 326 326 327 327 327 327 327 327 327 327 327 327 325 324 324 324 323 323 323 323 323 323 322 321 322
334 332 332 331 331 331 329 327 326 325 324 324 324 325 326 327 327 326 325 325 326 327 326 326 326 327 327 326 326 326 325 324 322 321 322 321 321 322 322 322 322 322 322
331 330 330 330 330 329 328 326 325 325 324 323 323 323 325 326 327 326 326 325 324 325 325 325 326 327 326 326 325 324 323 322 321 320 320 320 321 322 322 322 322 322 321
330 330 329 329 329 328 327 327 326 325 324 324 322 322 320 325 327 327 326 325 325 325 325 325 326 326 326 325 323 323 322 322 321 321 321 321 321 321 321 321 321 321 321
329 329 328 329 327 325 326 327 327 326 327 323 323 322 321 321 324 325 325 325 324 325 324 324 325 324 322 322 322 322 322 322 322 321 321 321 321 321 321 321 321 320 320
327 328 327 325 323 322 322 322 324 326 325 325 324 324 322 323 324 325 325 324 324 324 323 322 321 321 321 322 322 322 322 322 321 321 321 321 321 321 321 320 320 320 320
326 325 323 323 323 323 323 322 319 324 325 325 324 324 323 324 324 324 324 324 324 323 322 322 322 322 322 323 323 322 322 322 321 321 321 321 321 321 321 320 320 320 320
326 325 324 323 323 323 324 323 323 324 321 320 323 323 323 323 323 323 323 321 321 323 322 322 323 323 323 322 322 321 321 321 321 321 321 321 321 322 321 321 321 321 321
325 324 324 323 323 324 325 325 324 323 319 316 319 321 321 321 320 320 321 321 322 322 323 323 323 322 321 321 321 320 320 320 320 320 321 321 321 321 321 321 321 321 321
325 325 325 324 324 325 325 325 323 320 319 318 317 317 319 319 320 321 322 322 322 322 322 322 322 323 322 321 321 320 320 320 320 320 321 321 321 321 321 322 321 321 321
324 325 325 324 323 323 323 323 323 322 320 317 318 319 320 321 321 321 322 322 322 322 322 322 322 322 323 323 322 322 321 322 321 321 321 321 322 322 322 322 321 321 321
325 325 325 323 322 323 323 324 324 321 319 316 317 319 320 320 318 317 320 321 321 321 321 322 322 321 322 322 323 323 322 322 322 323 323 323 322 322 323 323 322 322 323
326 327 326 324 323 323 324 324 322 320 318 317 317 319 319 316 314 313 315 316 318 319 320 320 319 319 319 321 321 324 324 324 324 324 324 324 324 324 324 324 324 323 321
327 326 325 323 322 323 323 323 322 320 319 319 317 316 315 311 309 308 308 309 311 313 314 315 315 314 316 317 318 320 320 320 321 323 323 323 321 321 321 318 317 316 315
327 326 325 324 322 322 322 321 321 319 316 314 309 307 306 306 304 303 303 304 306 307 307 307 307 308 310 312 314 315 318 321 321 320 319 319 316 312 309 307 304 302 302
326 326 325 324 322 321 321 318 314 311 309 307 306 304 303 303 302 302 301 302 303 302 302 302 303 304 304 305 306 308 311 312 312 313 310 308 306 301 299 298 296 295 295

GFSGL_925_thetae_057.txt.gz
Theta_e
317 318 321 324 329 333 334 336 339 340 340 341 340 342 340 345 346 346 343 342 341 341 338 337 336 335 335 334 333 332 332 331 333 329 326 326 326 328 327 328 328 329 327
316 317 320 324 328 331 333 334 337 339 340 340 341 343 346 347 347 345 343 341 339 338 338 338 337 335 335 334 333 332 332 331 331 332 326 326 326 326 327 327 327 329 330
321 321 321 325 329 332 332 334 337 339 340 341 342 344 346 347 345 343 342 341 339 340 339 337 337 335 334 333 333 333 332 330 329 330 328 326 326 326 326 326 327 329 327
327 328 325 327 331 333 332 335 337 339 341 342 343 345 346 345 343 342 341 340 339 337 336 337 336 334 334 333 333 332 331 329 328 330 328 327 326 325 326 325 324 325 326
325 328 330 331 333 333 333 336 338 340 341 342 344 345 345 343 342 341 339 337 336 336 336 335 334 334 333 333 332 331 330 329 328 330 328 326 325 325 325 325 325 324 325
324 328 332 335 334 334 336 338 339 341 342 344 345 345 344 342 340 339 336 334 335 335 334 333 333 331 331 330 329 327 326 327 330 330 329 326 326 325 325 324 324 325 326
324 328 333 337 335 336 337 338 340 342 344 345 344 343 342 340 339 337 333 334 334 334 334 333 332 331 330 329 326 324 324 327 329 330 328 327 325 325 325 326 325 325 326
324 328 337 338 336 337 338 338 340 344 344 344 342 340 337 338 337 335 331 334 334 333 333 333 332 331 330 329 326 325 326 327 328 328 330 327 325 325 325 323 325 323 323
327 328 337 336 336 337 339 340 340 341 340 338 336 334 335 335 333 332 332 333 332 331 330 330 330 330 327 327 326 326 326 325 326 326 327 326 326 325 325 324 325 326 324
327 329 337 337 337 339 339 338 337 337 334 333 332 332 331 332 331 330 330 330 329 328 327 327 327 329 327 327 326 326 325 323 325 325 324 324 325 325 324 325 325 324 323
328 331 336 337 337 337 336 334 332 331 329 328 327 326 326 329 328 327 327 328 328 328 329 329 327 327 327 326 326 326 326 323 325 324 324 322 323 324 323 323 324 325 323
328 334 335 335 334 333 331 330 329 328 327 326 326 325 325 326 326 326 326 327 328 329 329 326 327 326 327 327 326 326 325 323 324 323 322 322 322 322 322 323 322 323 325
331 333 334 333 332 331 329 328 327 326 326 326 326 326 325 326 324 325 325 325 327 328 327 326 327 327 326 325 326 325 324 324 323 324 322 321 322 322 322 322 322 322 322
332 331 332 331 330 329 328 329 329 327 327 327 327 327 326 325 324 325 325 324 325 326 325 326 325 324 324 324 323 322 323 323 323 323 322 321 321 322 323 323 323 323 323
331 331 330 330 330 329 329 330 330 329 328 328 327 326 325 326 325 326 325 324 325 325 324 324 324 322 321 321 322 321 321 322 323 323 322 322 322 322 321 320 321 323 325
329 331 328 325 325 325 324 323 325 326 327 327 326 326 325 325 325 325 325 325 325 324 324 323 322 322 322 322 322 321 321 321 322 321 322 323 323 322 322 321 321 321 322
330 328 326 327 328 327 326 323 318 322 323 323 323 323 323 324 324 325 324 324 324 323 324 323 323 323 322 322 322 322 322 321 321 321 321 321 322 322 321 321 322 323 323
327 327 328 328 328 326 326 325 324 323 321 318 321 322 323 324 324 324 323 322 322 323 323 323 323 323 324 324 323 323 322 321 321 321 322 321 322 322 322 321 321 323 322
328 328 327 326 326 326 326 326 326 324 319 316 319 321 322 323 323 322 322 322 322 322 323 323 325 324 323 322 322 322 322 321 321 321 322 322 322 322 321 323 322 321 321
328 327 326 326 327 326 326 325 324 320 319 319 317 317 318 320 319 321 322 322 322 323 323 323 323 322 322 323 322 321 321 320 321 322 322 321 321 323 322 321 321 321 321
326 327 328 329 329 327 325 323 321 320 319 317 316 318 320 321 321 321 322 322 322 323 323 323 322 323 325 324 323 322 322 323 321 323 322 322 323 321 321 321 322 322 322
327 326 326 326 326 326 326 323 322 320 319 319 317 320 321 319 319 320 320 321 321 321 321 321 322 322 322 321 323 323 323 323 323 323 322 321 322 322 323 324 322 323 325
328 325 325 326 325 325 324 322 321 319 319 319 317 316 313 311 312 314 315 315 318 318 317 318 318 315 318 319 322 321 324 324 324 323 325 326 326 326 326 326 326 326 324
329 325 324 324 325 325 323 321 319 320 320 317 313 310 307 305 305 307 307 309 311 311 312 313 309 312 314 314 312 315 319 319 320 322 324 323 322 322 319 318 317 314 309
326 323 323 324 324 323 321 320 320 317 314 310 306 304 302 302 302 301 301 303 303 304 306 306 306 307 309 311 313 318 319 320 319 315 315 315 315 313 309 305 302 300 300
325 323 323 323 323 322 320 316 314 312 308 305 303 302 300 300 300 299 298 298 298 297 296 298 300 302 303 304 305 308 310 312 313 309 306 305 302 300 298 298 297 297 296

GFSGL_925_thetae_060.txt.gz
Theta_e
324 324 321 322 323 326 330 335 339 343 343 343 344 347 348 348 347 348 348 350 350 348 345 345 344 342 340 339 337 335 337 334 334 334 333 331 331 331 331 331 332 330 330
321 325 323 322 323 325 329 334 337 339 344 344 346 346 346 345 348 349 350 349 347 346 344 342 342 340 341 338 337 336 335 334 333 335 332 331 331 331 329 331 331 331 331
318 323 326 326 327 327 330 334 337 338 342 344 345 345 344 345 348 350 349 347 345 344 343 341 341 340 339 338 337 335 334 334 334 333 332 330 329 331 327 328 329 329 330
317 322 325 329 331 330 330 333 338 337 341 344 344 344 344 346 348 349 348 346 344 342 341 341 340 339 339 338 337 335 334 334 332 332 332 330 329 327 327 327 329 327 327
317 321 325 328 330 333 332 334 337 337 339 342 344 344 345 346 347 348 346 345 342 342 341 341 339 338 337 336 335 335 334 333 331 332 331 330 328 326 327 327 329 328 327
318 321 324 327 329 332 334 337 338 338 339 341 343 344 346 346 346 346 344 343 342 341 339 338 337 336 335 334 332 333 334 333 332 331 331 330 328 328 327 328 328 327 328
319 321 324 326 329 332 335 337 338 339 342 343 344 345 346 345 344 342 341 339 337 336 336 336 335 335 334 334 331 329 328 328 330 332 332 330 329 328 329 328 326 328 328
319 321 324 326 329 333 336 338 339 342 345 346 346 346 346 341 340 339 335 336 336 336 336 336 336 335 334 333 331 330 328 325 327 330 332 331 330 329 328 329 327 328 328
319 321 323 327 331 336 339 339 340 343 345 346 346 346 345 336 338 334 332 335 335 336 335 334 334 334 333 331 331 329 328 328 329 329 330 329 328 327 327 327 327 327 327
319 320 324 329 330 337 338 338 341 343 345 345 344 343 337 334 335 332 334 332 335 334 333 332 331 332 329 329 329 328 328 328 328 327 326 327 326 325 325 324 327 327 327
319 321 326 330 332 336 337 340 343 342 341 340 339 335 333 334 332 332 333 333 332 332 331 331 329 329 327 327 328 327 326 328 328 330 328 328 327 326 326 328 328 327 325
320 323 328 328 334 337 339 340 338 338 337 335 334 332 331 331 329 329 330 331 330 331 331 331 327 327 326 326 325 325 326 327 327 326 326 327 326 327 326 327 327 328 327
323 326 328 333 336 337 336 336 338 337 334 332 332 331 331 329 327 326 328 329 330 331 330 328 326 325 325 325 326 326 325 328 327 324 325 326 327 326 326 327 326 325 327
325 329 334 333 333 334 335 336 336 334 333 332 332 331 331 330 327 326 326 328 329 328 326 324 325 326 329 326 325 324 327 328 328 327 327 325 325 325 326 326 326 326 326
327 332 333 332 333 334 333 334 333 331 332 331 331 331 330 330 329 328 328 328 328 328 325 324 326 327 326 326 326 326 325 325 326 325 325 324 325 324 325 325 326 325 326
332 331 332 331 329 329 328 322 330 329 330 331 330 331 330 329 326 326 327 327 326 325 326 327 327 327 327 327 326 325 325 325 325 325 324 323 324 324 325 325 325 325 326
331 329 329 331 331 330 329 326 324 325 328 328 328 328 327 326 326 325 325 325 325 326 328 327 327 327 327 327 325 325 325 325 325 325 325 326 325 324 324 324 325 325 323
330 331 333 331 331 330 330 329 328 328 327 323 322 324 325 325 325 325 324 324 324 326 327 327 327 326 326 326 326 325 325 324 324 324 324 324 324 324 324 324 324 325 325
331 331 331 331 331 331 330 330 329 328 326 322 318 322 324 324 324 323 323 325 326 326 326 327 326 326 326 326 325 325 325 324 324 324 324 324 324 324 325 323 322 322 323
331 331 331 331 330 330 330 330 328 325 324 325 324 317 321 322 320 321 325 325 324 324 325 326 326 326 325 324 324 324 324 322 323 323 324 324 324 324 323 324 326 324 322
330 330 330 330 330 330 330 328 325 326 325 324 322 322 323 323 324 324 323 325 323 323 324 324 324 325 326 325 324 322 323 323 323 323 324 323 324 323 326 323 325 323 322
330 329 330 330 329 329 328 327 325 323 322 320 317 320 321 321 320 320 321 323 324 324 324 324 323 323 325 326 326 325 325 325 323 325 323 325 325 324 325 324 326 325 325
330 330 330 330 328 325 325 324 323 321 320 319 319 317 316 315 315 314 315 315 319 317 317 319 317 319 320 320 322 323 326 326 326 326 326 325 324 325 325 326 326 325 324
329 329 328 326 325 324 324 323 322 321 320 316 312 311 309 308 309 310 309 309 309 308 309 311 314 315 316 316 317 318 320 323 325 325 325 325 323 321 319 317 315 313 309
329 328 328 325 324 322 322 321 321 319 314 309 308 307 305 305 305 304 306 305 304 304 303 305 305 306 306 307 314 319 319 320 317 315 314 314 313 310 307 304 302 301 302
327 326 326 324 323 323 321 318 316 313 308 306 304 302 302 303 302 302 302 302 301 298 298 299 300 301 306 308 311 313 316 314 310 310 311 309 307 306 304 303 300 299 298

GFSGL_925_thetae_063.txt.gz
Theta_e
319 320 321 325 326 324 326 328 331 336 340 342 344 343 345 349 354 355 353 350 349 350 349 351 349 348 345 342 341 339 339 338 335 335 336 336 335 333 332 332 334 333 331
318 318 319 322 326 327 326 327 329 334 340 344 344 344 345 350 353 353 352 347 350 350 351 349 348 346 344 343 340 339 337 337 336 336 336 335 333 333 333 332 331 333 333
318 318 318 320 324 329 329 328 330 332 336 339 342 345 345 349 352 351 349 348 350 350 350 348 345 344 344 342 340 338 337 337 336 336 336 333 332 331 332 332 332 332 332
317 317 319 320 324 327 330 331 330 330 334 337 342 345 347 348 349 349 349 349 349 348 348 346 344 343 343 340 340 339 337 336 335 335 334 333 331 332 331 331 331 329 330
317 318 319 320 322 326 328 331 331 331 334 336 340 345 346 348 347 349 349 349 349 347 346 344 344 343 341 340 339 337 336 336 335 334 334 333 332 331 331 330 330 330 330
316 317 318 319 321 324 328 331 333 333 335 337 339 344 346 346 346 348 350 349 348 345 344 343 342 340 339 338 337 335 337 337 336 332 334 333 331 330 330 329 330 330 330
315 316 318 318 320 323 326 329 330 335 338 342 342 345 346 347 346 347 347 347 345 344 343 342 340 339 338 337 335 333 333 333 333 334 334 332 332 331 330 331 330 330 330
315 316 317 318 320 323 325 329 331 336 341 344 345 347 348 349 346 347 345 345 344 342 340 338 337 337 337 335 335 333 333 331 329 331 332 331 332 330 331 330 330 328 330
314 316 317 318 320 323 325 331 333 337 340 345 347 348 347 343 345 344 342 341 339 339 338 337 337 336 335 334 335 333 332 331 328 327 328 330 331 330 331 329 329 329 330
314 316 317 318 321 324 326 332 334 337 342 344 346 347 347 340 341 341 339 338 338 337 336 335 334 334 334 332 333 332 331 330 328 329 328 328 327 327 327 330 328 328 329
315 317 318 319 321 324 328 332 337 338 342 344 345 346 343 339 338 333 336 335 335 335 334 333 332 332 330 330 331 332 331 329 329 330 330 330 329 328 326 326 326 329 328
316 317 317 319 322 325 329 334 337 340 341 342 341 341 340 336 333 332 334 332 333 332 333 332 330 329 327 327 329 328 326 329 330 330 329 329 329 328 328 327 329 330 328
317 318 318 320 323 327 332 335 338 338 339 339 340 338 336 333 331 332 331 332 331 332 332 332 328 327 326 326 327 325 326 328 328 328 329 329 328 329 329 329 329 330 329
318 319 320 321 326 330 333 336 337 338 339 339 338 336 334 332 329 330 330 330 331 330 330 327 325 326 328 326 326 326 326 328 329 327 326 328 328 329 328 328 328 327 327
319 320 323 327 329 334 334 337 338 339 339 338 336 333 333 331 330 330 330 330 331 330 328 326 327 329 329 327 327 328 328 328 329 329 327 326 326 326 327 327 327 328 327
323 325 327 331 331 325 328 321 334 333 333 333 332 332 331 330 329 328 329 330 330 328 328 329 330 329 327 327 328 327 327 326 327 327 327 327 326 325 326 327 327 327 327
320 325 331 331 332 332 331 328 327 325 331 331 331 330 330 328 328 328 328 328 328 327 329 329 329 329 328 328 327 326 327 327 327 327 326 326 324 326 326 326 326 326 326
322 331 332 332 332 332 332 331 331 331 330 326 327 328 327 327 327 327 327 326 326 328 329 329 329 328 328 328 327 327 327 326 326 326 326 326 326 326 325 326 326 327 326
330 332 333 332 332 331 331 331 332 331 329 323 318 323 325 325 325 325 325 327 328 329 329 329 328 327 327 327 327 326 326 326 326 326 325 326 325 325 326 326 326 325 325
332 332 332 332 330 330 331 330 330 329 327 326 325 319 321 323 322 325 327 327 328 328 328 328 328 328 328 327 326 326 326 325 325 325 326 326 325 325 325 326 325 325 325
332 331 332 332 331 331 331 331 329 329 328 326 323 323 324 325 325 326 327 327 327 327 327 326 326 327 326 326 326 325 324 324 325 325 324 325 326 326 325 325 325 326 326
332 331 332 331 331 331 330 329 329 328 326 324 322 323 324 325 326 325 326 324 324 324 325 326 326 327 327 327 324 324 325 326 326 326 326 326 326 326 326 326 324 326 324
330 330 331 331 330 329 329 328 327 325 322 322 322 321 321 319 320 321 323 322 323 323 323 323 324 324 324 325 325 326 326 326 327 327 326 326 325 326 327 327 326 325 320
332 331 330 328 328 327 327 326 323 323 322 320 317 314 313 313 314 315 315 317 317 318 320 320 321 322 320 321 320 319 321 325 325 325 326 325 323 321 320 318 316 313 309
330 329 328 327 327 326 324 324 322 321 317 316 311 309 309 309 309 309 310 312 310 308 309 312 311 309 309 309 314 319 320 319 318 318 315 320 318 315 309 306 304 303 302
329 328 326 325 325 325 323 321 319 315 312 310 307 306 306 307 307 305 303 301 301 301 301 301 300 307 311 313 313 313 313 312 312 312 310 309 309 308 305 303 302 301 299

GFSGL_925_thetae_069.txt.gz
Theta_e
317 318 319 320 320 321 320 325 328 326 325 325 327 327 327 326 341 346 347 350 351 351 351 352 354 354 352 351 347 345 343 342 335 338 337 337 335 335 334 332 332 331 330
318 320 322 321 321 320 318 322 324 328 327 326 325 326 331 335 334 346 351 352 354 354 354 354 354 353 351 349 348 344 343 342 340 333 336 336 335 334 332 331 331 331 331
315 314 315 315 316 320 319 322 320 320 324 328 328 328 328 334 340 340 347 350 352 352 352 355 355 352 348 349 348 345 343 342 338 335 335 335 334 333 332 331 330 330 330
316 315 315 315 315 316 317 321 322 322 326 327 329 331 329 330 335 343 343 346 347 349 352 354 352 350 347 349 347 345 343 340 337 335 334 333 333 332 331 331 329 330 329
314 313 313 313 313 313 315 317 319 320 321 320 323 330 333 332 333 338 345 345 351 352 351 352 350 348 347 347 346 344 340 337 336 335 334 332 332 331 331 330 329 329 328
312 313 313 312 312 312 313 317 320 322 320 320 325 329 333 333 332 334 343 347 348 350 350 350 349 348 347 346 346 343 339 337 336 334 332 331 331 331 330 330 329 328 326
312 312 312 313 313 314 314 317 319 320 320 324 324 328 330 333 334 330 339 344 347 347 349 350 347 346 344 343 342 339 337 336 335 335 334 333 332 332 330 331 329 328 328
312 312 312 312 313 313 314 315 317 318 320 320 322 324 328 333 333 334 339 343 346 346 348 346 344 343 341 341 339 336 335 336 335 333 332 332 331 331 330 328 329 329 329
311 311 312 311 311 312 314 314 314 318 320 323 325 328 330 331 333 335 340 343 344 345 344 345 342 341 340 339 337 334 333 332 332 331 331 330 331 329 330 329 330 329 327
311 311 311 311 312 312 312 312 313 315 321 322 322 326 329 329 331 335 340 340 343 343 343 342 341 339 339 338 337 334 333 331 331 330 328 327 329 329 327 326 329 328 327
311 311 312 312 312 312 313 313 313 315 319 322 322 326 328 330 333 336 341 341 341 339 341 339 338 337 336 334 335 335 333 332 329 328 327 328 328 329 329 330 329 328 328
311 311 311 311 311 313 314 313 313 316 321 323 324 326 327 326 333 338 340 341 340 338 336 335 335 334 333 332 333 332 332 331 328 328 329 329 328 328 329 329 328 328 328
311 311 311 311 313 314 315 315 317 320 321 323 325 327 329 330 336 337 340 339 339 337 335 334 333 332 330 330 330 330 330 329 328 329 328 329 328 326 327 326 327 326 327
309 311 312 313 314 315 315 317 318 319 321 323 324 327 329 328 332 332 338 338 337 336 334 332 330 329 329 328 327 327 328 328 328 329 329 329 329 328 328 326 327 327 327
308 310 312 313 314 315 316 317 319 321 322 323 326 329 332 328 327 329 335 334 333 332 330 327 326 326 326 325 325 326 328 327 328 327 328 327 327 328 328 328 328 327 327
309 310 311 312 313 316 316 317 319 320 320 320 326 330 332 330 329 331 331 333 331 329 326 326 326 326 325 325 326 326 326 328 328 327 327 327 328 327 328 327 327 327 327
309 311 312 314 316 317 317 318 320 315 320 323 325 331 332 330 331 331 331 330 328 327 326 327 327 327 326 327 328 328 328 328 328 328 327 327 326 326 325 326 326 327 326
310 311 314 316 317 318 319 320 321 321 322 318 330 332 330 331 330 330 330 328 328 327 328 328 328 328 328 328 328 327 327 328 327 327 327 327 326 326 326 326 326 325 326
311 315 315 318 320 322 323 324 325 326 320 314 314 322 328 330 331 330 329 327 329 329 329 329 328 327 327 327 327 327 327 326 326 327 326 326 326 325 326 326 326 326 325
319 322 322 321 324 325 326 326 323 320 320 321 319 315 317 326 326 327 327 329 329 329 329 329 328 328 328 327 327 326 326 326 326 325 326 326 326 326 326 326 326 325 324
321 324 327 326 325 327 326 327 325 324 323 322 322 324 326 325 326 327 328 328 329 329 328 328 328 328 327 327 327 326 325 325 326 326 326 326 325 325 325 325 325 326 326
327 324 325 324 325 329 328 326 324 323 324 323 322 325 326 327 328 328 328 328 328 328 328 327 327 327 327 326 326 325 325 324 325 325 325 326 326 326 325 326 324 325 324
331 329 329 329 328 326 325 324 323 323 324 323 323 326 326 326 326 326 325 327 327 327 327 327 326 326 325 325 325 325 325 326 325 325 325 325 326 326 325 322 319 317 318
329 329 327 326 325 324 323 323 323 323 322 321 321 321 321 322 321 321 320 322 324 324 325 325 325 325 325 326 326 326 326 326 326 326 325 325 321 319 316 311 306 306 308
328 326 325 323 323 322 321 319 319 317 316 316 316 315 314 314 314 314 315 316 318 319 319 321 320 320 323 323 322 322 322 325 325 323 321 319 316 311 305 302 301 301 303
325 324 323 322 321 319 316 315 314 314 313 312 311 310 310 309 309 310 311 313 314 313 313 313 315 317 317 317 316 316 317 318 318 316 314 307 303 300 299 298 298 297 297

GFSGL_925_thetae_072.txt.gz
Theta_e
317 316 316 316 318 320 319 319 319 319 323 325 326 326 326 327 329 331 333 340 341 330 332 331 336 343 346 348 348 350 347 339 333 336 336 337 336 335 334 333 333 331 331
317 316 316 317 319 320 321 321 322 319 320 323 323 323 327 327 326 327 335 335 341 339 337 342 345 348 349 350 349 348 344 340 339 332 336 336 335 334 334 333 332 331 331
318 317 317 315 315 315 315 315 316 320 323 325 319 321 322 329 330 329 330 338 346 347 347 347 347 349 350 349 347 347 345 341 340 337 335 335 334 334 332 332 331 330 330
314 314 314 314 314 314 314 314 314 315 314 317 324 323 327 322 321 327 331 332 338 345 348 348 350 350 349 349 347 346 345 342 339 336 333 333 333 333 332 331 330 329 330
314 314 313 313 313 313 313 312 312 311 311 311 313 321 321 320 323 329 330 331 333 340 343 344 347 347 347 349 346 346 345 341 337 334 332 331 331 331 331 330 329 329 328
313 313 313 313 312 312 311 311 311 311 310 310 312 315 321 319 324 327 328 331 332 337 343 346 347 348 348 346 345 344 343 339 335 333 331 329 330 331 330 330 329 327 326
313 312 312 312 312 311 311 311 311 312 313 316 319 322 319 319 323 321 321 327 331 332 335 345 346 345 346 345 343 344 342 340 338 336 333 333 332 332 331 329 328 328 327
311 311 311 312 312 312 312 312 312 312 313 314 317 321 320 320 319 318 321 327 331 334 336 343 343 343 344 343 343 341 338 337 336 335 334 334 332 332 332 330 329 328 328
311 311 312 312 311 311 311 311 312 312 313 313 315 318 318 318 321 326 329 331 332 335 337 342 342 342 341 343 341 338 335 335 334 333 332 331 331 331 331 329 329 328 326
311 310 311 311 311 310 310 310 311 311 312 313 314 320 323 323 323 326 328 331 332 335 338 341 339 339 339 339 339 336 333 332 332 331 331 330 330 330 330 329 328 328 326
309 310 310 310 310 310 310 310 310 311 311 312 314 314 317 320 318 317 321 325 332 336 337 338 337 339 338 337 337 335 334 332 331 330 328 327 328 329 329 327 326 328 327
309 310 310 310 310 310 311 311 311 311 312 312 315 316 321 321 319 316 317 323 329 336 336 338 336 337 337 337 335 335 334 332 330 328 327 327 328 329 329 329 329 328 328
309 309 309 309 310 311 311 311 311 312 312 312 315 318 320 319 319 318 321 325 334 336 334 337 336 335 334 333 334 334 332 331 329 327 328 328 327 327 328 328 328 328 327
308 308 308 310 310 310 312 313 313 313 315 316 318 320 322 322 324 324 323 331 331 333 333 333 332 332 331 331 330 330 330 330 327 328 328 328 327 326 327 326 326 326 327
307 308 308 309 311 311 312 312 313 314 315 316 319 321 322 323 324 325 326 328 330 334 333 329 327 327 327 327 327 327 328 327 328 328 328 328 328 328 327 326 327 327 326
306 308 308 309 310 311 312 313 314 315 316 318 319 320 320 323 325 328 328 328 328 333 328 325 324 324 324 325 325 327 328 328 327 327 328 327 327 327 327 327 327 327 326
306 307 308 309 311 311 312 313 313 312 317 319 319 319 318 318 321 328 327 327 329 328 326 324 323 323 324 324 325 326 327 327 327 326 327 326 327 326 327 326 326 326 325
306 307 308 311 312 313 313 314 315 315 315 316 315 315 316 322 326 327 326 326 326 326 325 324 324 324 325 325 325 326 326 327 328 327 327 327 326 325 324 325 325 325 325
306 308 308 310 313 315 316 316 317 318 318 318 315 316 322 325 326 326 329 327 325 325 325 325 325 325 326 327 327 327 327 328 327 327 327 327 326 326 325 325 325 325 325
308 309 311 313 315 318 318 319 320 321 319 317 319 313 311 319 320 324 326 326 326 326 326 326 327 327 327 327 326 326 326 326 326 326 325 326 326 325 325 325 325 324 324
310 311 311 315 317 319 321 323 322 320 321 322 318 316 321 325 325 325 326 326 327 327 327 327 326 327 327 326 326 326 325 325 325 326 326 326 325 326 325 325 325 324 325
321 323 320 323 325 325 325 324 323 323 322 321 319 321 326 325 325 327 328 328 328 328 328 327 327 327 327 326 326 325 325 325 325 325 325 325 325 325 324 324 324 323 324
322 323 320 321 325 324 324 324 323 324 323 322 324 325 325 325 325 326 327 327 328 327 327 327 327 326 326 326 325 325 324 324 325 325 325 325 325 324 325 323 321 319 321
326 326 325 325 324 324 324 324 323 323 324 325 325 324 322 321 322 323 324 325 326 326 327 327 326 326 325 325 325 325 325 324 324 325 325 325 324 320 316 314 313 311 308
324 324 323 322 322 322 322 322 320 319 320 319 317 316 316 315 316 316 317 320 322 324 324 324 324 325 325 325 326 326 326 325 325 325 324 321 316 310 306 304 302 300 298
322 321 321 320 319 319 318 316 315 315 314 313 311 311 311 311 311 312 314 317 318 318 319 321 321 322 322 322 322 324 324 323 321 319 316 311 306 300 300 298 297 296 296

GFSGL_925_thetae_075.txt.gz
Theta_e
319 320 319 320 322 320 321 323 320 322 322 322 322 324 324 323 326 326 327 329 333 335 334 337 337 334 336 337 342 343 343 340 340 341 338 337 337 336 336 335 333 333 332
318 318 317 316 317 316 317 319 320 320 321 320 322 325 324 319 319 326 329 328 330 332 331 337 337 336 335 339 341 343 343 342 339 336 337 336 336 335 334 333 333 332 331
314 314 315 315 315 316 318 319 317 317 318 318 319 321 322 323 322 323 321 319 322 330 335 341 343 343 343 343 344 345 344 343 338 336 334 334 334 333 332 333 332 331 330
316 316 315 316 317 317 316 315 314 314 313 313 313 313 313 315 325 325 320 319 322 329 330 334 337 342 346 346 347 346 345 341 337 336 334 333 333 333 333 331 330 330 329
314 314 315 315 314 314 314 313 313 312 312 312 311 311 311 311 313 319 321 320 324 328 329 331 335 336 340 344 346 346 344 339 337 334 331 329 330 331 331 331 330 329 328
313 314 314 314 314 313 313 312 312 312 311 311 310 310 309 310 311 313 317 320 323 324 323 325 330 335 335 340 345 346 343 341 337 334 330 329 329 331 331 330 329 327 325
311 311 312 313 312 312 312 312 311 311 311 310 310 310 310 312 314 318 320 319 321 318 320 324 329 333 336 340 343 343 342 342 341 340 334 332 332 333 332 329 328 327 326
309 310 311 311 312 312 312 311 311 311 311 310 310 310 311 312 315 321 322 319 319 324 326 330 331 333 336 340 342 340 339 338 338 337 336 335 334 333 333 332 330 328 327
307 309 311 311 311 311 311 311 311 311 311 311 310 311 312 312 315 318 318 321 326 328 329 330 331 335 337 340 339 336 336 335 336 335 334 333 333 331 331 330 328 326 326
305 306 308 310 311 311 311 311 311 311 311 310 310 311 312 312 313 323 324 325 325 323 323 327 332 334 337 338 337 337 334 333 333 332 332 331 331 330 330 330 329 326 326
305 305 306 308 310 310 310 310 310 310 309 310 310 310 310 312 312 316 320 319 317 317 322 326 331 335 337 335 334 333 335 333 332 331 330 329 329 329 329 329 328 328 327
305 306 307 308 309 309 309 309 309 309 309 309 309 310 311 311 312 313 320 319 316 319 322 325 330 335 334 335 336 334 333 332 330 329 327 326 327 327 328 328 327 327 327
305 305 306 306 308 309 309 309 309 309 309 309 309 311 312 313 313 319 319 319 317 321 320 329 334 335 331 327 333 334 332 331 329 326 325 326 327 328 328 328 328 328 328
305 305 306 307 308 308 309 309 309 309 309 310 310 311 312 313 313 313 318 319 318 320 324 330 333 331 333 334 332 331 332 331 330 327 326 327 327 327 328 328 327 327 327
305 306 307 308 308 308 309 309 310 310 310 311 312 314 315 316 316 314 318 319 321 322 326 324 324 330 328 328 327 330 330 330 328 327 327 327 326 326 325 325 325 326 325
305 305 306 307 308 309 310 310 310 312 312 312 313 313 315 317 318 318 320 325 326 325 324 326 327 327 325 324 326 327 328 327 327 327 327 328 327 327 326 326 326 326 325
304 305 307 308 309 309 310 310 310 311 313 314 315 315 316 317 319 320 319 319 325 325 327 326 326 325 323 323 324 325 326 327 327 327 327 328 327 327 326 326 326 325 325
304 305 307 308 308 309 311 311 311 311 311 310 312 315 317 319 319 318 316 320 319 323 326 326 325 323 323 324 325 326 327 327 326 326 327 326 326 326 326 325 325 325 324
305 306 307 307 309 310 311 311 311 312 313 313 314 315 316 316 316 316 320 321 323 325 324 323 323 323 323 324 325 326 326 327 327 326 326 326 326 325 324 325 325 324 324
305 306 307 308 309 312 313 313 313 314 315 316 315 315 314 313 311 313 318 326 325 324 323 323 324 324 324 324 325 326 326 327 327 327 326 326 325 325 324 324 324 323 323
305 307 308 310 310 313 315 316 315 316 318 318 318 313 312 315 317 322 325 326 325 324 324 324 324 325 326 327 326 326 327 326 326 326 326 325 325 324 324 324 324 323 323
308 309 309 310 315 315 317 320 321 321 321 317 315 316 322 324 325 325 325 325 326 325 325 325 325 327 327 326 326 326 326 325 325 326 325 325 325 325 325 325 324 324 323
312 313 316 312 314 319 320 322 322 321 320 320 320 321 325 325 324 324 325 326 326 326 326 326 326 326 326 326 326 325 324 324 324 325 325 325 324 324 324 323 322 319 316
322 322 324 324 324 323 322 322 322 322 322 322 323 324 323 322 322 323 326 326 326 326 326 326 326 326 325 325 325 324 324 325 325 325 325 325 323 323 320 317 316 311 307
323 324 324 323 322 322 322 322 322 320 319 319 317 316 318 318 321 322 323 325 326 326 326 326 325 325 325 325 324 323 323 324 324 324 324 323 319 316 313 308 305 301 297
320 320 320 320 319 318 318 318 316 315 314 312 312 313 314 313 315 317 319 322 322 323 323 323 324 324 325 325 325 325 324 324 324 323 320 317 312 306 302 299 297 296 294

GFSGL_925_thetae_078.txt.gz
Theta_e
318 318 318 319 319 320 320 321 322 321 322 321 323 324 325 322 323 325 326 327 329 329 331 333 333 331 335 335 335 337 338 339 339 339 339 339 339 337 336 336 336 334 333
315 317 318 319 320 321 321 319 321 319 319 320 320 321 322 323 321 322 322 324 322 321 321 330 332 336 337 337 337 336 339 339 338 340 339 337 336 336 334 334 333 332 332
316 315 317 319 318 320 318 317 318 319 319 319 320 321 322 321 322 323 323 324 321 318 317 323 330 335 339 338 340 340 340 337 338 338 337 335 334 333 332 332 332 332 331
314 314 315 315 315 315 315 316 318 317 316 316 316 314 313 312 312 312 314 320 321 319 318 322 328 328 332 338 341 342 343 341 339 337 334 333 333 332 332 332 331 331 330
312 312 313 314 315 315 315 317 316 315 313 312 312 311 311 311 310 310 310 311 314 316 319 319 320 319 321 328 336 339 343 342 338 334 331 329 330 329 331 332 331 330 329
309 310 311 311 314 315 316 314 314 312 312 311 311 310 310 310 309 309 308 311 315 316 318 321 317 316 320 325 330 334 337 342 336 334 332 331 330 331 331 331 329 328 330
307 308 308 309 311 312 313 313 312 312 312 311 310 310 310 310 309 309 308 312 318 319 322 320 317 321 327 329 330 334 338 340 338 336 332 332 332 333 332 329 329 328 328
306 307 307 308 309 310 311 312 312 312 311 311 311 311 310 309 308 309 309 314 318 322 322 320 324 328 329 330 333 337 338 337 336 337 336 336 335 334 333 332 331 328 326
305 305 306 307 308 309 310 310 311 311 311 311 311 310 309 309 309 309 310 312 315 318 320 325 325 324 328 329 334 336 331 334 336 336 333 334 333 332 332 331 328 328 326
305 305 305 305 307 309 310 310 311 311 311 311 311 310 310 309 309 309 309 310 317 322 325 321 320 319 322 327 332 332 332 334 335 334 334 333 331 331 330 330 330 329 328
304 305 305 305 305 306 308 309 310 310 310 310 310 310 310 309 309 310 310 310 314 322 319 317 317 317 319 325 333 335 334 334 333 333 331 330 330 330 329 329 329 328 328
304 304 304 304 304 305 305 308 309 309 309 309 309 309 309 309 309 310 311 311 311 316 319 317 316 316 318 329 332 333 333 333 330 330 328 327 328 328 328 328 328 327 327
304 305 304 304 304 306 306 308 308 308 308 308 307 308 308 309 309 310 311 312 313 319 320 317 317 316 322 331 331 332 332 330 329 326 325 325 326 326 327 327 327 328 327
303 303 304 304 305 305 306 308 308 307 308 308 308 309 309 309 310 311 311 311 312 319 318 317 317 320 327 330 329 330 332 330 328 326 325 326 326 326 327 327 327 327 327
301 302 302 304 305 305 306 308 308 308 308 309 309 309 310 310 311 311 311 312 314 315 318 317 319 322 322 324 327 326 330 328 327 327 325 325 325 326 326 326 326 326 326
302 301 304 305 306 307 308 308 308 309 309 309 309 309 310 311 310 311 314 314 314 319 321 319 321 324 325 326 326 326 327 326 328 326 326 325 325 325 324 324 325 325 325
301 303 305 305 307 308 308 309 309 309 309 309 309 310 311 312 313 314 315 319 322 322 322 322 325 326 327 326 327 327 325 327 327 326 326 326 325 325 325 325 325 325 325
302 304 305 306 307 308 309 310 310 311 310 310 310 312 312 313 313 314 317 319 317 315 320 326 327 327 326 325 325 325 325 326 326 326 326 326 326 326 326 326 325 325 323
304 305 306 308 308 309 310 310 310 310 310 311 310 310 312 313 314 314 315 314 316 316 321 326 326 324 324 324 324 324 325 325 326 326 326 326 326 326 326 325 324 324 324
305 305 306 307 308 309 309 311 311 310 311 310 310 312 310 308 308 310 312 314 318 320 323 325 324 323 322 324 324 325 326 326 325 325 326 326 326 324 324 324 323 323 323
304 305 306 306 308 310 311 312 312 312 311 311 312 313 312 310 312 311 311 314 322 324 324 323 323 323 324 324 325 325 325 326 326 326 326 325 324 324 324 323 323 323 322
306 307 307 308 308 309 311 314 314 313 314 315 315 315 316 313 315 313 319 324 324 324 323 324 323 323 324 324 324 325 326 326 326 326 326 325 324 324 324 323 323 323 322
307 308 309 308 310 314 313 316 318 318 319 318 316 314 312 318 321 324 324 324 325 326 325 324 324 324 325 326 326 326 326 325 325 326 325 325 325 324 324 323 321 318 315
309 311 312 312 311 313 317 319 321 320 320 319 322 323 322 322 323 323 323 323 324 324 324 324 325 326 325 325 325 325 324 324 325 324 324 325 324 323 322 319 315 309 305
323 323 322 321 320 321 321 321 321 321 320 318 318 317 317 318 319 320 322 324 324 324 325 326 326 325 325 325 324 323 324 324 324 324 324 324 323 320 317 311 306 300 298
317 318 318 319 319 319 319 318 316 316 316 315 315 314 313 314 317 319 320 322 324 324 325 324 324 325 325 324 323 323 324 324 325 324 323 322 318 312 308 303 299 295 294

GFSGL_925_thetae_084.txt.gz
Theta_e
327 330 330 329 327 328 328 327 328 329 330 329 331 334 336 338 340 342 344 343 342 341 341 340 339 339 338 337 336 336 333 334 338 334 336 333 336 338 341 343 341 340 339
323 325 326 327 326 326 326 326 326 328 327 327 328 328 330 332 335 337 337 337 338 337 336 333 332 331 334 336 336 336 334 334 336 335 332 328 336 340 341 340 341 340 340
318 321 322 325 327 327 326 326 326 325 325 326 326 327 327 327 328 327 326 327 327 326 325 325 325 325 327 328 331 331 334 335 335 336 334 332 336 341 339 339 340 339 339
316 317 319 322 324 326 327 326 325 324 323 323 323 323 324 325 324 324 324 325 325 324 323 323 322 321 323 325 327 327 329 332 333 337 340 340 340 340 336 337 337 337 338
315 316 316 317 320 323 325 326 325 324 323 322 322 321 322 323 323 322 321 321 321 320 318 318 318 320 321 323 322 320 321 325 329 331 338 340 340 337 335 337 339 338 337
312 314 315 316 315 317 321 325 326 324 323 321 320 320 322 321 318 319 319 319 318 317 317 317 319 321 321 318 317 320 319 323 328 332 335 338 341 339 338 338 339 340 342
312 311 312 313 315 315 316 320 323 325 324 323 322 320 321 320 316 314 311 317 317 317 318 320 322 321 322 324 323 323 325 331 332 333 335 337 341 340 340 340 339 339 339
311 312 311 311 312 313 314 315 319 322 325 326 324 323 321 321 314 311 310 315 317 317 318 318 321 324 326 325 323 326 328 329 331 334 335 336 339 340 339 338 339 338 338
310 311 311 311 311 312 313 314 316 320 323 324 324 322 321 321 316 310 309 314 316 317 318 317 318 321 324 324 326 325 326 327 328 332 336 335 336 338 337 336 338 337 338
308 309 311 311 311 311 314 314 315 318 321 321 322 321 321 320 316 310 310 314 315 316 317 317 317 320 322 325 326 323 323 325 329 335 332 332 333 333 332 335 336 336 335
304 306 306 307 310 311 312 314 315 316 317 320 321 320 320 319 319 312 309 314 315 315 316 316 316 320 324 323 320 321 322 322 327 333 331 332 331 330 331 333 336 335 334
299 300 303 306 308 310 312 313 313 316 317 318 319 319 318 319 318 317 309 310 313 314 314 314 315 317 321 322 321 318 316 321 329 330 331 331 330 330 331 333 334 334 334
299 300 299 302 303 307 310 312 312 314 316 316 316 318 318 318 318 316 313 309 310 311 313 313 313 314 318 320 319 321 319 328 330 331 333 331 331 333 332 333 334 333 332
299 299 300 301 302 303 306 310 311 312 314 315 316 316 316 317 317 317 314 311 309 310 310 311 312 313 315 319 320 320 321 329 331 333 332 332 332 330 332 332 332 332 332
299 300 300 300 302 303 303 305 309 310 311 314 315 316 316 316 316 317 316 315 315 315 313 314 315 317 319 320 322 322 325 329 331 332 331 330 331 331 331 331 331 332 332
300 299 300 300 301 303 304 305 304 308 310 310 311 313 315 315 315 314 314 314 313 314 315 315 316 318 320 320 322 323 326 328 330 329 330 330 330 330 330 331 332 332 331
300 300 300 300 302 303 305 304 307 307 308 308 308 309 310 313 312 313 312 312 310 311 313 314 316 318 320 321 322 323 326 328 330 330 332 331 330 330 329 331 331 331 330
302 300 302 302 304 304 304 306 306 306 308 309 309 309 309 309 311 311 310 310 309 309 313 315 316 318 320 321 322 327 326 328 330 332 331 330 330 330 330 330 330 330 330
303 303 305 304 304 305 305 305 307 307 308 309 310 308 309 309 309 310 311 312 313 314 315 316 316 319 322 322 326 326 328 328 330 331 331 330 330 329 329 329 329 329 328
307 306 306 306 306 306 306 306 306 308 309 311 311 311 310 306 307 307 308 313 315 316 317 317 319 319 320 324 327 328 329 329 331 331 330 330 330 330 330 329 327 326 327
308 308 308 309 309 309 309 310 310 311 311 311 311 313 312 310 310 311 312 313 314 315 318 319 319 319 321 327 327 329 329 330 331 330 330 330 330 329 328 327 326 327 328
309 309 308 309 310 310 310 311 311 312 312 313 312 312 312 312 313 313 314 314 315 316 317 319 320 322 325 325 328 329 330 330 330 329 330 330 329 328 327 326 327 328 326
310 311 311 311 311 310 312 314 314 314 313 313 314 314 312 312 314 315 315 316 316 316 317 319 323 324 325 324 328 330 329 330 330 329 330 329 326 326 328 327 327 326 324
311 313 313 314 314 315 315 316 317 317 318 317 316 315 314 314 315 316 317 316 317 319 319 322 324 324 324 327 329 329 329 330 330 330 329 328 328 327 327 327 325 318 313
309 312 316 317 317 318 319 318 317 319 320 319 318 318 319 317 316 318 319 319 320 323 323 323 324 325 327 328 329 329 329 329 329 328 327 327 326 325 322 316 313 311 310
301 306 310 313 316 318 319 319 318 315 314 313 316 317 316 317 319 320 321 323 323 323 323 324 325 327 329 328 329 328 328 328 327 326 324 319 317 315 312 310 309 309 305

GFSGL_925_thetae_087.txt.gz
Theta_e
324 327 330 334 338 340 341 337 340 343 343 342 345 345 345 345 345 344 344 342 342 343 342 342 342 339 340 341 341 339 337 337 340 337 336 333 338 337 328 337 342 342 342
321 323 327 330 332 334 334 322 332 335 336 334 336 336 336 337 338 340 341 341 342 342 343 343 342 342 342 342 340 336 336 337 337 338 335 336 334 333 328 340 340 341 341
319 320 320 326 329 330 329 328 329 330 330 328 328 329 330 330 333 335 336 337 337 339 339 339 336 335 334 333 335 333 335 335 335 335 334 333 335 331 320 338 341 340 342
315 318 320 320 325 327 329 328 327 327 327 327 327 327 326 327 329 331 331 333 333 332 329 328 326 326 326 327 328 330 330 329 329 332 334 333 334 337 342 341 339 339 339
314 315 316 320 319 323 327 328 327 326 325 325 326 326 326 326 326 326 326 327 327 326 324 322 321 321 321 322 323 325 328 325 323 324 327 330 332 335 340 339 338 338 340
313 313 314 315 319 318 320 324 328 326 325 324 324 324 324 324 325 324 326 325 323 322 320 318 319 320 321 320 318 318 321 322 325 322 323 327 333 334 337 339 340 341 337
311 313 313 314 315 318 318 319 324 328 328 326 324 323 324 323 322 322 321 322 321 321 321 321 322 320 322 322 324 324 320 322 322 324 332 332 334 335 337 339 340 340 336
308 309 311 313 314 315 317 316 319 323 327 327 327 324 323 324 320 319 319 321 321 321 321 321 322 323 324 325 326 325 324 326 328 331 330 334 334 336 337 340 339 338 336
305 307 309 311 313 314 315 316 317 319 323 326 326 328 326 325 318 317 316 317 319 320 320 321 321 321 320 322 325 324 325 325 325 326 327 330 333 336 334 334 336 332 334
302 303 306 307 310 310 314 315 314 318 318 321 325 326 328 328 319 315 313 315 319 319 321 321 320 319 319 320 323 326 325 323 323 326 327 330 334 333 333 333 331 333 333
303 303 304 305 308 308 308 315 316 315 316 317 321 323 325 327 323 314 313 316 317 319 319 319 319 317 318 320 322 326 325 323 321 322 325 332 332 333 332 328 327 330 335
301 301 301 303 303 304 308 308 314 316 315 315 317 321 323 324 325 316 313 312 317 318 318 318 318 317 316 319 323 322 321 319 320 323 329 332 333 333 330 330 334 333 334
299 299 300 300 302 302 303 308 311 317 318 316 317 319 323 324 324 322 314 311 312 316 317 317 316 315 313 313 314 319 319 321 321 327 332 332 334 333 331 334 331 333 335
300 299 299 299 300 301 302 305 310 314 318 320 321 322 321 323 323 320 317 311 310 311 313 315 314 313 312 313 314 318 321 321 322 330 332 333 334 335 333 334 335 334 333
300 300 301 300 300 300 301 303 306 311 315 317 320 320 322 322 322 322 318 316 313 311 313 315 316 316 317 318 319 318 320 321 326 330 332 333 333 333 333 332 332 332 333
302 300 299 300 300 300 302 303 303 305 309 311 310 318 318 320 320 320 319 318 316 315 313 317 318 318 317 317 319 321 323 323 327 332 332 332 331 332 332 332 332 333 333
302 300 300 300 301 301 303 303 304 304 306 306 308 310 310 313 317 318 318 317 316 315 317 318 317 317 316 317 319 321 323 324 328 332 331 330 332 332 331 331 332 332 332
303 301 300 301 301 302 303 304 304 305 307 307 308 309 309 310 313 315 317 315 312 312 315 315 314 314 315 317 319 321 323 324 328 330 330 332 332 332 331 331 331 332 331
305 304 302 302 303 304 303 305 306 307 307 308 309 309 309 309 311 312 313 315 315 315 314 313 313 314 315 317 320 322 323 327 327 330 331 331 332 331 331 331 331 331 330
308 305 305 305 306 305 305 306 306 306 307 308 307 309 309 308 310 311 312 313 314 314 314 314 314 315 316 318 321 323 325 328 328 330 331 332 331 330 331 330 330 330 329
309 308 308 307 307 306 306 307 308 308 307 307 307 310 310 310 311 311 312 313 313 313 314 315 316 317 317 319 321 326 329 329 331 331 332 331 330 331 330 328 329 329 328
310 310 309 310 310 310 309 308 306 306 306 306 307 312 311 310 311 311 311 311 312 313 315 316 318 319 319 320 320 328 329 330 331 331 332 331 331 330 329 328 328 328 325
312 312 311 312 312 312 311 312 311 311 311 311 311 312 312 312 313 312 312 313 313 315 315 316 318 319 321 321 326 328 329 330 330 331 332 331 329 329 328 328 328 327 326
311 314 315 315 314 313 314 316 315 314 314 314 314 315 313 313 314 314 315 315 315 316 316 317 318 319 322 323 326 327 329 330 330 331 329 329 329 328 329 328 328 326 323
300 305 309 313 318 319 318 317 318 318 317 317 317 315 314 314 314 316 317 317 316 316 316 317 319 323 324 326 326 329 330 329 329 329 329 328 328 328 327 325 323 319 315
295 297 299 302 306 310 314 316 315 314 315 318 319 319 317 316 316 317 318 319 318 318 319 323 324 325 326 328 328 329 329 330 329 330 329 328 327 326 324 321 318 317 315

GFSGL_925_thetae_093.txt.gz
Theta_e
316 316 316 317 317 318 320 319 320 327 329 331 334 334 336 333 329 328 327 324 320 326 336 340 340 340 338 338 338 337 335 336 336 337 337 335 335 334 336 334 333 330 323
312 312 315 315 315 318 319 317 318 322 326 328 330 331 331 330 327 327 322 323 321 321 334 335 339 338 340 339 338 338 337 338 338 336 336 336 335 332 332 332 332 329 326
309 309 310 312 313 314 317 319 316 321 323 324 323 326 328 328 326 325 324 323 324 324 330 332 337 339 340 340 340 338 338 337 337 336 336 335 331 330 330 333 334 332 332
307 307 307 308 309 311 312 312 317 318 321 324 321 325 326 326 324 320 320 321 322 329 334 336 337 340 339 336 337 337 336 335 334 333 330 328 326 322 325 333 332 331 332
306 306 306 306 308 308 309 310 311 314 320 321 324 322 323 321 323 320 320 324 328 330 334 337 337 338 335 333 335 333 331 329 328 326 323 321 319 317 318 323 330 331 331
305 305 304 304 305 305 306 308 309 310 314 320 320 322 320 319 321 320 323 324 327 333 335 336 330 327 324 324 322 322 321 320 320 322 321 320 316 319 321 332 334 334 327
304 304 303 304 304 304 306 306 308 309 310 318 321 321 322 321 319 324 324 324 333 334 329 322 319 318 318 320 322 322 322 323 320 316 316 317 319 323 327 328 330 332 334
302 303 302 301 302 304 305 304 307 308 309 312 319 319 322 319 320 324 329 331 333 327 323 319 321 323 323 325 326 326 325 324 325 325 326 324 324 327 329 330 331 332 332
300 300 301 301 302 303 304 305 305 305 308 311 317 318 320 318 316 317 330 329 323 320 319 319 323 321 320 321 321 321 323 324 323 326 324 325 322 319 317 321 330 331 328
299 299 300 300 300 300 301 302 304 305 308 310 313 318 318 320 318 320 326 323 322 321 320 320 321 320 321 320 318 319 322 323 326 327 325 324 323 318 317 324 330 331 329
299 299 300 300 300 300 300 301 304 305 307 309 312 317 320 319 321 317 324 322 322 322 322 322 321 322 319 317 318 319 320 321 323 324 324 321 319 320 322 330 331 329 329
299 300 300 301 301 301 300 300 301 304 305 308 309 315 319 320 320 319 320 322 321 321 321 322 321 320 320 319 317 316 318 320 322 321 319 319 320 322 329 332 333 332 331
300 301 302 302 302 301 300 300 301 303 305 307 309 312 318 320 320 322 316 320 322 320 319 319 321 318 316 316 315 313 314 315 315 317 317 319 323 325 331 331 331 330 330
301 303 304 304 303 302 300 300 300 302 305 306 309 311 315 319 318 320 320 315 313 319 319 320 317 316 315 315 314 314 314 314 314 314 318 322 326 323 330 331 331 329 330
303 304 305 302 301 301 300 300 300 301 303 305 307 307 306 314 318 318 320 317 317 311 315 315 314 314 315 315 315 315 317 318 318 317 320 323 325 328 331 331 330 330 329
302 305 302 301 300 300 300 300 299 300 302 304 306 308 307 309 314 319 317 316 318 319 312 314 314 314 314 314 315 316 318 319 320 319 323 326 324 329 331 330 330 329 329
301 305 302 301 301 300 300 300 301 300 301 304 307 307 308 307 310 319 318 318 318 318 312 313 313 313 314 314 316 318 318 317 317 321 325 324 326 332 331 330 329 329 329
302 307 303 301 301 301 300 300 301 302 302 302 305 306 308 307 309 318 320 318 313 312 312 312 313 314 315 315 318 318 315 315 319 324 325 325 325 331 330 330 329 329 329
303 307 305 304 303 302 302 302 303 303 304 303 304 305 306 307 311 316 318 316 315 315 315 314 314 314 315 318 316 315 314 314 318 324 326 325 324 330 330 329 329 329 329
301 308 308 306 306 304 304 304 304 304 305 305 305 307 306 307 309 309 312 317 316 317 317 315 316 316 317 317 316 315 314 315 317 323 324 326 325 325 329 329 329 329 329
302 308 311 308 307 306 304 304 305 306 305 306 308 308 308 310 310 310 312 318 316 315 315 316 316 317 316 315 314 314 314 314 317 323 326 326 326 327 330 329 328 327 321
300 302 306 310 311 309 307 307 308 307 307 306 308 309 309 310 311 312 312 314 316 316 317 317 316 316 315 314 315 315 316 316 324 326 327 326 328 329 329 328 326 322 320
295 297 300 303 304 306 311 309 306 307 307 307 307 307 308 308 309 310 311 313 314 314 315 316 315 315 315 315 315 317 320 318 323 323 326 327 330 329 328 327 324 324 322
291 293 295 297 298 301 306 311 310 307 306 307 307 308 307 307 308 309 310 312 312 313 314 314 314 313 313 313 312 315 323 326 327 325 324 329 329 328 327 326 325 323 322
289 290 291 293 294 296 299 302 310 311 307 307 308 307 308 308 308 309 309 310 312 312 312 313 313 313 312 312 311 313 321 322 322 323 326 328 328 328 327 327 326 323 321
288 288 289 289 291 292 294 296 297 300 309 311 309 308 310 311 311 310 309 311 310 311 313 313 312 312 312 314 315 316 323 323 322 325 328 328 327 328 327 326 324 321 319

GFSGL_925_thetae_096.txt.gz
Theta_e
310 309 309 309 309 310 312 315 318 320 318 316 318 321 325 327 331 334 334 332 332 329 329 330 329 327 326 324 334 335 335 333 330 332 333 335 336 334 333 334 336 334 333
308 307 307 307 307 307 308 309 310 311 314 320 320 320 323 324 326 329 331 328 325 323 328 326 325 325 329 331 334 334 335 334 334 330 335 335 336 334 332 332 331 334 333
307 306 306 306 306 306 306 307 308 308 310 311 321 320 320 322 325 327 327 325 323 322 326 327 327 327 329 327 334 336 336 335 335 336 335 336 335 331 329 332 333 334 332
305 305 305 305 305 305 305 306 307 307 308 310 312 320 322 322 324 326 326 325 324 323 326 322 322 324 328 330 333 335 335 337 336 336 334 333 328 323 319 317 322 330 330
303 303 303 304 304 304 304 304 304 305 307 308 309 310 321 321 323 324 325 324 323 323 321 322 323 325 327 332 332 333 334 335 333 330 323 320 319 317 316 322 328 331 328
301 302 301 302 303 303 303 303 303 305 307 307 308 309 319 320 321 321 322 321 322 324 325 328 331 336 336 335 335 335 334 330 327 324 321 318 319 315 320 325 331 329 326
300 300 300 301 302 302 301 301 302 304 305 304 307 309 311 319 319 320 319 320 321 320 322 331 332 333 334 333 332 328 324 323 322 320 317 315 316 320 323 327 326 329 330
299 299 300 300 300 301 301 301 302 302 303 305 307 311 310 317 318 319 319 319 319 320 322 330 332 332 328 321 318 319 320 321 321 320 323 324 323 325 327 326 326 328 330
299 299 300 300 300 300 300 300 300 301 303 303 304 304 312 317 319 318 320 317 317 319 324 324 322 319 319 321 321 323 322 323 325 326 324 324 324 321 318 318 320 324 325
298 299 299 299 300 300 301 301 300 300 301 302 305 306 308 314 318 319 318 317 316 320 320 321 320 322 324 324 322 322 323 323 324 324 324 323 323 321 318 318 321 327 328
297 298 299 299 300 301 301 301 301 300 300 303 305 306 311 314 318 318 317 317 316 322 321 322 322 320 320 318 317 317 317 320 324 323 322 321 319 318 319 325 330 330 329
297 298 299 300 301 302 302 302 301 300 300 302 304 306 310 316 319 318 318 314 317 321 321 321 320 320 318 317 318 317 318 318 319 321 319 317 317 319 323 330 332 332 329
297 297 299 301 303 303 301 302 301 300 300 302 304 307 311 317 320 321 320 315 320 321 320 320 321 320 318 317 316 315 314 315 316 317 315 314 318 322 326 330 330 331 330
297 298 300 302 302 301 300 302 301 300 300 302 305 309 310 316 318 318 320 318 320 320 320 320 320 320 319 317 314 314 313 314 314 315 315 319 323 325 326 330 330 329 329
296 297 299 303 301 301 300 301 300 300 300 302 306 308 307 311 308 317 318 312 320 319 319 317 315 314 314 314 314 314 316 317 317 317 317 318 321 324 327 330 329 329 328
296 298 300 302 301 300 300 300 300 299 300 302 303 306 307 308 308 317 317 314 314 318 315 313 313 313 314 314 314 314 316 318 317 317 318 318 324 324 328 330 329 328 327
296 299 302 304 302 301 300 300 300 300 299 301 303 304 306 308 308 313 314 317 316 313 314 314 314 314 313 314 313 314 317 317 315 316 320 320 325 325 330 330 328 328 326
297 298 303 306 304 302 302 301 301 301 301 300 301 303 306 306 308 308 315 313 312 316 315 312 312 313 313 313 314 315 316 314 313 314 322 323 324 325 329 329 328 328 326
295 298 302 306 306 305 302 303 303 303 303 302 302 303 305 306 307 308 312 313 314 313 316 314 315 315 315 314 315 316 314 314 313 315 319 324 324 325 327 329 328 328 327
295 300 302 306 308 306 304 304 304 304 304 304 303 304 304 305 306 306 309 313 312 314 314 315 317 316 316 315 315 315 315 314 314 313 317 324 325 325 326 327 327 327 328
295 297 299 303 305 308 306 305 305 306 306 306 304 306 305 307 306 307 308 315 315 314 315 317 317 316 317 316 315 316 314 315 315 314 318 322 325 326 326 328 327 325 325
292 294 296 298 300 301 304 307 308 306 306 306 307 307 308 308 309 308 310 315 316 318 318 317 316 316 317 316 316 314 315 317 318 317 323 325 326 327 328 328 327 326 321
290 292 293 294 296 297 300 308 307 306 306 307 308 308 308 308 308 311 313 315 316 316 316 316 317 316 316 316 315 315 316 319 321 320 321 325 326 329 328 326 325 321 318
289 289 290 291 292 294 295 298 308 306 306 307 307 308 308 308 309 309 310 312 313 314 315 316 316 316 315 315 315 313 312 315 320 325 326 325 328 328 327 325 323 322 318
288 288 288 289 290 291 292 294 296 299 306 306 306 307 307 308 308 308 309 310 311 312 313 313 313 313 313 314 313 313 312 312 317 321 322 324 328 328 326 325 323 321 317
287 287 287 287 287 288 289 291 292 294 296 300 308 306 307 307 307 307 307 308 309 311 312 312 312 312 312 312 312 311 312 314 315 321 322 325 328 327 325 325 324 321 318

GFSGL_925_thetae_102.txt.gz
Theta_e
305 305 305 305 305 304 304 304 304 304 305 305 304 306 307 309 309 310 313 321 322 322 322 325 329 332 332 331 331 330 328 327 326 325 325 327 330 330 333 332 334 335 334
305 304 304 303 303 302 302 303 303 303 303 303 304 305 306 307 309 311 314 312 321 322 323 325 325 327 331 331 330 329 329 326 326 326 325 327 328 327 331 334 333 332 332
303 302 302 302 301 301 302 302 302 302 302 303 303 303 303 304 305 307 312 314 315 322 323 323 323 324 325 328 330 329 327 326 325 325 325 326 328 331 332 333 332 332 332
301 301 301 300 300 300 301 300 300 301 302 303 303 302 301 303 304 306 308 312 315 318 323 323 323 324 325 325 326 327 327 326 326 326 326 329 330 331 331 332 330 330 330
300 300 300 299 299 299 300 300 300 301 302 303 302 301 301 302 306 307 309 311 316 319 321 322 324 323 323 325 326 326 325 326 327 328 327 329 328 325 327 328 329 331 331
299 298 299 299 299 300 300 300 300 300 300 301 301 300 301 302 302 303 303 305 309 318 320 321 322 323 323 323 324 324 325 327 328 327 326 328 323 323 319 323 323 327 330
298 298 299 299 300 300 299 300 300 299 300 301 300 300 301 301 301 302 307 307 309 315 318 319 320 321 323 324 324 325 326 329 329 328 327 326 320 323 318 322 325 324 324
297 298 299 299 299 299 299 299 299 300 300 301 301 301 301 301 301 301 302 303 306 316 318 318 319 320 322 323 323 324 326 327 327 326 323 325 328 324 320 320 324 325 326
297 298 298 298 297 298 299 299 300 300 301 301 302 302 301 301 301 300 301 303 305 313 317 318 321 321 321 320 321 323 322 324 326 326 326 325 324 319 321 324 325 325 324
297 297 297 297 297 298 298 299 300 300 301 302 302 302 302 301 301 300 302 305 306 310 317 318 321 319 318 319 318 320 317 314 316 314 318 321 318 323 325 324 324 320 322
296 296 296 296 297 297 298 299 300 302 302 301 301 301 302 301 301 300 303 304 306 311 317 319 319 320 319 317 317 318 319 318 320 322 322 321 321 321 319 319 318 316 321
294 295 296 297 297 298 299 300 302 301 300 301 302 301 300 300 301 303 303 303 305 313 317 318 317 319 318 319 319 322 323 323 322 322 321 320 319 319 318 317 318 320 321
294 295 295 296 297 298 299 300 302 300 301 301 301 301 301 302 303 305 305 306 311 314 318 319 317 318 319 319 317 322 323 323 321 318 315 314 315 317 321 326 327 328 327
294 294 295 296 297 299 300 302 302 301 300 300 301 300 301 302 306 305 309 313 315 316 319 318 317 319 319 315 317 318 316 315 315 313 313 316 319 321 325 329 327 327 326
293 294 294 296 298 299 300 302 302 301 300 299 299 300 300 302 303 305 308 312 315 317 318 315 315 318 315 313 313 314 314 314 315 315 317 320 321 323 326 328 325 325 325
293 294 294 296 297 299 301 304 303 302 302 300 299 299 301 302 304 305 310 314 316 318 317 314 313 313 311 311 312 313 314 315 315 315 316 317 320 322 326 326 325 324 324
293 293 294 295 297 299 301 304 303 303 303 302 301 300 300 301 303 305 308 314 316 317 316 313 314 313 311 312 314 315 314 314 315 317 317 317 322 323 327 327 326 325 323
292 293 294 295 296 298 301 304 304 303 303 303 303 303 301 301 304 306 307 314 315 315 313 313 313 313 311 312 313 314 313 313 315 318 320 320 323 323 326 327 325 326 324
292 292 293 294 295 297 299 301 304 304 304 304 304 304 302 302 305 308 312 313 312 311 312 312 313 312 312 313 315 312 313 313 313 315 319 322 323 323 324 326 326 324 323
291 291 292 293 294 295 296 299 302 305 305 304 304 304 302 305 307 308 310 313 312 310 311 312 312 312 313 315 313 314 313 314 313 312 315 320 322 323 324 325 325 324 324
290 290 290 291 292 293 294 297 302 307 306 306 305 303 303 305 307 308 311 311 314 315 312 312 312 314 314 314 314 313 315 316 315 314 318 320 322 324 324 325 325 325 324
288 289 289 289 290 291 292 295 298 301 306 304 304 304 305 307 308 309 312 311 313 315 315 314 314 315 314 314 314 314 317 320 319 317 321 323 324 324 326 325 325 322 319
287 287 287 288 288 289 290 292 294 295 302 306 306 306 306 306 309 312 311 310 313 315 316 315 314 315 315 315 314 314 316 317 320 320 318 323 324 326 326 325 321 317 313
286 286 286 287 287 287 288 289 291 292 294 297 301 304 305 306 306 306 309 312 314 315 316 316 314 315 315 315 314 312 312 313 313 313 320 324 323 325 324 324 322 317 312
284 285 285 285 285 286 286 287 288 289 290 292 294 296 299 304 305 306 306 307 308 311 314 315 316 316 316 315 314 313 312 312 312 312 311 314 324 325 325 323 322 319 314
283 283 283 283 284 284 284 285 286 286 287 288 290 291 294 298 302 305 306 306 307 307 308 311 313 314 315 314 314 313 312 312 312 311 312 313 317 324 325 323 322 317 312

GFSGL_925_thetae_105.txt.gz
Theta_e
307 307 308 308 307 307 307 307 307 307 307 307 307 307 307 308 309 311 312 313 315 318 322 324 326 326 327 326 329 332 332 332 335 332 330 330 330 328 328 331 334 336 338
306 306 306 306 306 306 306 306 306 306 306 306 306 306 307 307 307 307 308 309 311 315 318 322 323 324 325 326 328 331 331 330 330 331 332 332 329 329 329 332 332 335 335
305 305 305 305 305 305 305 305 305 305 304 305 305 306 306 306 305 305 306 307 308 310 315 318 320 323 324 325 325 328 330 330 329 329 329 331 330 329 329 330 332 335 336
304 305 304 304 304 304 304 304 304 304 304 304 305 305 306 305 304 304 305 306 308 310 311 315 317 320 323 324 324 325 326 328 329 329 328 328 329 329 330 332 332 336 337
303 303 303 303 303 303 303 303 303 303 303 304 304 305 305 305 304 304 304 304 305 306 307 311 316 319 322 322 323 324 324 327 327 327 327 327 328 330 331 331 333 334 337
302 301 301 301 302 302 302 302 303 303 304 304 304 304 305 305 304 303 302 303 303 305 308 309 311 317 320 320 321 323 324 325 326 326 327 327 328 330 331 331 334 334 335
301 301 301 301 301 301 301 302 303 303 303 303 303 304 303 303 303 303 302 302 303 303 305 309 312 316 320 322 322 323 324 323 324 326 327 327 328 329 331 331 331 332 332
299 300 300 300 300 300 301 301 302 302 303 304 303 302 302 302 302 302 302 302 303 303 305 307 314 317 320 320 321 321 322 323 323 324 324 325 327 328 327 327 329 329 330
299 299 298 299 299 300 300 300 302 304 304 303 303 302 302 302 302 301 302 302 302 303 306 307 311 318 319 319 319 319 321 324 323 325 325 327 326 323 325 327 329 328 328
297 297 297 298 298 298 299 301 302 303 303 303 303 302 301 301 302 302 302 302 302 304 306 308 311 317 318 318 318 320 321 320 319 323 324 323 324 323 326 326 327 327 326
295 295 296 297 298 298 301 302 302 301 302 303 302 302 302 301 301 301 301 301 301 305 306 311 318 318 316 319 317 318 318 316 318 320 317 319 320 321 324 326 326 326 324
294 295 296 297 298 300 301 300 300 301 301 303 302 302 302 301 301 301 302 302 303 304 306 312 318 316 315 319 319 319 319 318 319 319 319 321 322 321 321 323 322 324 324
294 295 296 297 298 300 300 300 300 301 303 302 301 302 301 300 301 302 304 304 306 304 306 311 314 316 318 318 318 319 319 322 322 323 322 321 321 321 321 320 322 325 328
293 294 295 296 298 300 300 300 301 302 303 302 302 301 301 301 301 302 303 305 308 307 309 315 315 317 317 314 318 320 320 323 323 321 318 318 320 322 324 326 325 325 326
293 293 295 296 297 299 299 299 300 303 304 303 302 302 301 300 301 302 304 306 312 312 315 316 315 318 318 317 318 317 316 316 316 316 319 322 324 326 328 326 326 327 328
292 293 293 294 295 296 298 299 301 304 305 303 302 300 300 300 300 302 305 310 314 316 317 317 318 319 317 316 316 316 317 317 319 321 323 323 324 326 328 327 327 327 326
292 292 293 294 295 296 297 299 301 304 305 305 304 303 303 301 302 305 307 312 314 317 317 319 320 317 316 317 318 317 317 318 318 320 322 324 325 329 328 327 326 325 322
291 292 292 293 294 295 296 298 300 303 306 307 307 305 303 302 306 309 309 312 314 317 318 320 319 316 315 317 317 316 317 320 323 322 323 326 326 329 330 329 326 328 323
291 291 291 291 293 294 295 297 299 302 307 306 307 307 304 307 311 311 311 314 316 318 319 320 318 316 315 318 316 316 316 317 321 325 325 326 327 326 329 330 328 329 323
290 290 290 290 291 292 293 295 299 301 306 307 307 306 307 308 310 310 314 315 317 318 318 319 318 316 316 318 317 317 317 317 317 321 325 327 327 327 326 328 327 325 325
288 288 289 289 290 291 292 294 296 298 305 306 306 304 305 310 310 310 312 316 316 316 317 316 316 316 317 317 317 317 318 317 316 318 322 325 327 327 328 328 329 326 326
287 287 287 288 288 289 290 292 293 295 298 304 305 306 309 311 311 312 311 313 317 316 315 315 314 316 316 316 317 320 322 320 321 325 326 326 327 328 329 328 326 322 320
289 287 286 287 287 287 289 289 290 291 294 296 300 304 306 308 308 309 311 314 316 316 315 315 317 317 316 316 317 319 322 324 323 322 326 327 326 327 326 324 323 321 320
287 287 286 285 286 286 287 287 288 290 291 293 294 296 299 305 306 307 308 310 313 315 315 317 316 317 317 316 316 316 318 319 319 319 323 326 326 326 325 325 322 317 314
286 286 286 286 284 284 285 285 286 287 288 288 290 291 292 295 301 303 307 308 309 311 313 315 315 315 316 316 315 316 312 312 312 312 316 318 324 325 324 322 318 310 308
284 284 285 284 285 284 284 284 284 285 286 286 287 288 289 290 293 295 298 301 305 310 310 312 314 315 316 315 315 315 312 311 311 311 313 317 319 325 324 321 318 311 307

GFSGL_925_thetae_111.txt.gz
Theta_e
318 318 318 318 317 317 317 317 317 318 318 317 317 317 318 317 317 317 317 317 317 317 317 317 318 318 320 322 324 326 327 328 329 327 326 326 327 329 331 333 334 335 333
316 316 316 316 316 316 317 317 317 317 317 317 317 317 316 316 315 315 315 315 314 315 314 314 314 314 316 318 320 324 325 325 327 329 327 327 327 327 326 330 332 334 333
315 314 314 315 315 316 316 316 316 316 316 316 315 315 315 314 313 313 313 313 313 313 313 313 313 312 313 314 316 319 322 325 326 327 327 326 325 325 328 330 331 332 334
314 313 313 314 314 315 315 315 315 315 315 314 313 313 312 312 312 312 312 311 311 311 311 311 310 311 310 311 312 314 318 322 324 325 326 326 325 325 326 329 331 332 333
312 312 312 313 313 313 313 313 312 312 312 312 312 312 312 311 311 310 309 308 308 308 308 308 308 308 308 308 308 310 312 314 320 324 326 325 324 325 326 327 330 331 332
311 312 312 312 312 313 313 312 311 311 311 311 312 311 311 310 311 308 306 307 307 307 307 306 306 307 307 307 307 307 308 311 314 318 323 326 325 325 324 325 329 331 337
310 311 311 311 311 311 310 310 310 310 310 311 310 310 310 310 308 307 306 305 305 306 306 306 306 306 305 306 306 308 308 308 311 312 319 322 324 324 324 327 330 331 332
309 309 308 308 308 307 307 308 309 309 310 310 309 309 309 308 309 307 305 304 305 305 304 305 305 305 304 305 307 308 309 312 316 315 316 320 322 323 324 325 329 330 331
308 307 305 304 304 303 303 305 307 308 308 308 309 308 308 308 308 305 304 305 305 304 305 306 304 305 305 304 305 307 308 310 314 319 321 323 322 324 325 326 328 330 332
304 302 302 301 301 301 300 302 305 306 307 307 308 307 307 308 306 305 304 304 303 302 302 303 304 304 304 304 305 306 308 313 316 321 322 321 320 318 322 325 326 329 332
299 299 299 299 299 298 299 302 304 305 306 306 307 306 307 307 306 306 305 303 302 302 302 303 304 306 305 305 309 307 310 313 316 320 322 323 324 324 325 325 326 329 331
296 297 297 297 298 298 301 302 303 304 305 307 305 305 307 307 307 307 306 304 302 302 302 304 305 306 306 307 308 309 312 315 313 316 320 323 323 323 325 326 326 327 329
295 296 296 296 297 297 301 302 303 304 306 305 304 305 307 309 308 307 305 305 304 302 303 307 307 307 307 310 314 315 315 318 317 321 322 322 322 323 323 324 326 327 327
294 295 295 295 296 297 300 301 301 302 302 303 304 305 308 309 307 306 305 304 303 307 309 310 311 313 315 316 316 316 315 314 314 317 319 318 321 323 325 326 327 327 326
293 294 295 295 296 297 298 298 298 300 301 301 302 304 307 308 307 305 304 302 304 310 313 314 317 318 317 316 317 317 316 316 314 313 316 318 319 320 323 325 326 326 326
292 293 293 295 295 295 296 298 298 300 300 301 303 304 306 307 306 306 305 309 311 313 314 319 320 320 319 319 320 320 320 318 318 316 315 316 317 319 322 323 324 326 323
292 292 292 293 293 294 295 295 297 299 301 304 306 308 308 307 307 309 310 311 313 316 319 321 321 321 320 320 321 321 319 317 318 320 318 317 320 323 324 325 326 326 323
290 290 290 291 292 292 293 294 296 298 299 304 308 310 309 310 311 312 312 314 319 319 320 320 321 320 318 318 322 323 322 322 323 323 323 323 326 327 326 327 327 326 324
291 289 289 291 291 291 293 294 295 296 300 302 308 309 308 311 313 313 313 316 320 320 320 320 320 320 319 318 317 322 324 324 325 325 325 325 326 328 327 327 327 327 324
293 290 288 289 289 291 292 292 293 294 297 298 301 302 300 307 311 315 320 319 319 320 321 322 321 321 320 319 319 319 320 323 325 325 325 327 328 329 328 329 327 326 325
295 292 289 288 288 289 290 290 292 292 294 296 298 298 298 303 309 314 321 319 315 318 320 321 320 320 322 323 319 318 320 322 325 324 325 327 327 327 330 330 329 328 327
294 294 291 289 288 288 288 289 290 291 292 294 294 295 295 298 302 303 310 317 316 318 321 320 320 320 322 323 323 323 324 324 325 324 325 326 327 329 328 328 327 327 321
293 293 293 291 289 288 288 288 289 288 289 290 292 292 293 293 297 300 303 308 316 321 322 322 321 320 320 320 321 320 319 321 322 323 325 326 326 328 328 328 327 325 324
293 292 292 291 289 289 288 288 287 287 287 288 289 289 290 291 293 294 298 302 309 317 318 321 321 322 321 318 315 314 313 316 317 318 318 322 325 326 326 326 326 325 324
291 291 290 290 289 289 289 288 288 287 287 287 287 287 288 289 290 291 296 298 304 309 311 313 318 319 316 315 312 311 311 312 313 317 319 318 324 325 324 322 321 321 321
290 290 290 288 288 287 287 288 288 287 287 287 286 286 287 287 287 289 290 293 297 301 304 307 310 314 311 308 310 311 310 311 312 316 318 319 322 325 323 318 317 319 315

GFSGL_925_thetae_114.txt.gz
Theta_e
320 320 320 320 319 319 319 319 319 319 319 319 319 319 319 319 319 319 319 318 318 318 317 318 318 317 317 316 316 317 319 321 324 325 326 328 327 327 328 329 328 328 330
318 318 318 318 318 318 318 318 318 318 318 318 318 318 318 318 317 317 316 317 317 316 316 315 316 316 315 315 314 314 315 317 320 322 324 325 326 326 328 329 325 324 326
316 316 316 316 316 317 317 317 317 317 317 317 317 317 317 316 316 315 314 315 315 314 313 312 312 312 313 312 313 312 312 313 314 317 320 322 326 326 326 327 325 328 328
315 315 314 314 315 315 316 316 316 316 315 315 315 315 315 315 314 314 313 313 312 311 310 310 309 309 310 311 311 310 311 311 312 313 314 318 323 325 326 326 326 325 329
314 313 313 313 314 314 315 315 315 314 313 313 313 313 313 313 312 312 311 310 310 309 309 309 308 308 308 308 308 308 307 308 308 308 310 313 316 323 325 325 326 327 329
313 312 313 313 313 313 313 314 313 312 311 312 312 313 312 312 311 311 311 310 308 307 307 307 307 307 306 306 307 307 307 308 308 308 309 310 313 315 322 325 326 328 328
312 311 311 311 311 310 310 309 309 309 310 311 311 311 310 310 311 310 309 308 307 306 306 305 305 306 306 306 306 306 306 306 306 306 308 309 310 313 317 323 325 326 327
310 310 309 308 307 307 306 306 306 306 308 309 310 309 309 310 309 308 307 308 306 305 306 306 306 305 306 306 305 306 305 305 306 308 309 309 310 312 314 320 323 324 325
307 306 305 304 303 303 303 303 303 303 305 307 307 307 308 309 308 307 308 306 305 306 306 305 304 304 304 304 305 305 305 305 305 306 307 307 308 310 315 319 323 324 324
302 301 300 301 301 300 301 301 301 301 304 306 306 307 307 307 307 307 307 307 306 305 304 303 303 303 303 304 304 304 304 305 306 307 307 312 314 317 318 320 323 324 325
298 297 297 297 299 299 299 299 300 303 304 304 305 306 307 306 306 308 308 307 305 304 304 303 303 303 304 304 305 305 305 305 306 308 310 313 315 321 321 321 321 321 325
296 295 296 297 296 297 299 299 300 303 304 305 306 306 305 306 307 309 308 306 305 304 304 304 304 305 307 307 307 307 308 306 304 305 310 315 317 320 322 322 321 321 325
294 294 294 296 296 296 297 298 301 302 302 303 303 304 304 306 307 308 307 306 305 305 304 306 308 311 314 313 314 315 314 314 312 309 312 314 317 319 322 323 323 325 325
293 293 294 294 295 296 296 297 298 299 299 301 302 303 303 305 307 308 308 306 306 305 306 308 313 316 317 315 315 314 314 313 313 316 318 320 321 321 323 324 324 325 326
292 293 293 293 295 295 295 296 297 298 299 299 300 301 303 304 306 307 307 307 307 307 307 313 316 318 318 317 316 316 314 316 315 315 316 318 317 316 320 323 324 325 325
291 291 291 292 293 293 294 295 296 297 298 300 303 303 304 306 308 308 310 311 311 311 309 313 316 316 319 319 319 318 317 317 314 314 315 316 315 320 325 325 325 322 319
291 290 290 291 292 292 293 294 295 297 299 303 306 306 306 306 308 310 312 312 314 316 316 318 320 320 317 319 320 320 319 318 319 315 315 314 319 320 321 324 323 321 321
291 290 289 291 291 292 293 293 294 295 298 300 302 303 304 309 311 314 313 315 318 319 319 321 323 321 318 321 317 321 323 323 323 321 319 319 321 321 322 323 322 322 322
292 290 289 289 290 291 291 291 293 294 296 298 300 299 301 305 310 316 317 317 317 320 320 321 322 322 321 320 319 321 323 324 325 324 323 323 324 326 326 325 322 322 323
294 292 290 289 289 289 290 291 291 292 294 295 296 294 294 299 303 305 310 319 319 317 318 319 322 323 323 324 322 322 319 323 325 325 325 325 326 327 327 324 324 324 321
296 294 291 290 289 289 289 290 290 290 291 292 293 292 292 295 298 300 304 309 311 315 318 321 321 320 321 322 321 321 325 325 325 325 326 326 327 327 327 326 326 319 315
294 294 293 290 290 289 289 289 288 288 289 289 290 290 291 293 293 295 298 302 309 314 316 320 320 318 319 316 317 317 317 318 320 325 327 327 328 328 328 326 321 319 316
293 293 293 291 291 289 289 288 288 288 288 288 288 288 289 290 290 291 294 296 300 309 311 313 312 312 312 310 309 309 311 312 316 320 326 327 326 327 327 325 323 320 317
292 292 291 290 289 290 289 289 288 288 288 288 288 287 288 288 288 289 291 293 295 300 306 307 311 308 309 309 309 310 311 313 318 319 322 325 326 325 326 326 325 322 317
291 291 289 289 287 288 288 290 289 288 288 288 287 287 287 287 287 288 289 290 293 295 299 304 305 305 303 305 307 309 311 312 314 319 321 324 323 322 323 323 322 322 319
289 289 289 288 287 286 286 287 288 288 288 287 287 287 286 287 287 287 287 289 290 291 294 297 300 302 300 301 302 308 310 311 313 317 319 323 323 322 321 320 320 318 316

GFSGL_925_thetae_117.txt.gz
Theta_e
319 319 319 319 318 318 318 318 318 318 318 318 318 318 318 318 318 318 317 317 317 316 317 316 316 316 315 315 315 315 315 314 314 313 314 315 318 321 323 322 324 326 327
317 317 317 317 317 317 317 317 317 317 317 317 317 317 317 317 317 316 316 316 315 315 315 314 312 312 312 311 311 312 313 313 313 312 311 312 313 314 319 322 325 324 325
315 315 314 314 314 315 315 315 315 315 315 316 316 315 314 314 314 314 315 314 312 312 311 311 310 309 309 308 308 308 309 311 311 310 310 310 312 313 315 320 323 324 326
313 313 313 313 313 313 314 314 315 315 315 314 313 312 312 313 314 313 312 311 311 310 310 310 309 309 308 308 307 307 308 308 308 309 309 308 308 308 311 314 322 324 325
312 312 312 312 312 312 312 313 313 312 312 311 311 311 312 312 312 312 310 310 310 309 308 308 307 308 308 307 307 308 307 307 307 307 306 306 306 307 308 310 314 320 324
312 311 311 311 310 309 308 308 308 308 308 308 309 310 311 311 311 309 310 309 308 307 307 307 307 307 305 305 305 306 306 307 306 306 306 306 306 307 308 309 312 317 323
309 308 307 306 305 304 304 304 304 304 304 305 306 309 310 309 308 309 309 308 307 307 307 307 306 305 305 306 306 306 305 306 306 306 306 306 306 307 307 308 310 315 321
304 303 302 302 302 302 302 302 302 302 303 302 303 306 307 307 307 308 308 307 306 307 306 306 305 306 306 305 305 305 305 304 305 305 306 306 305 305 306 307 309 312 315
300 299 299 299 299 300 300 300 300 300 300 301 303 305 306 306 306 306 306 306 306 307 307 306 306 305 305 304 303 303 303 303 304 305 305 304 304 306 307 308 309 314 316
298 297 297 296 297 298 299 299 299 300 300 302 304 304 305 305 306 306 306 306 307 307 307 305 304 304 304 304 304 303 303 303 304 305 305 305 305 306 306 306 307 309 317
296 295 295 295 296 297 297 298 299 299 300 303 303 304 305 306 305 305 306 307 307 306 305 305 305 305 305 306 304 303 303 304 304 305 305 306 307 308 310 313 313 311 315
293 294 294 294 295 296 296 297 297 299 301 302 301 303 303 304 304 304 306 308 307 306 305 305 306 309 311 312 311 312 311 306 303 303 305 306 307 310 313 315 316 316 318
293 293 294 294 294 295 296 296 297 298 299 299 300 302 302 303 303 304 306 308 307 306 306 308 308 311 312 312 316 315 314 314 312 305 304 306 308 312 315 318 319 320 319
292 292 292 293 293 294 294 295 296 297 298 299 299 300 301 301 302 304 306 305 305 308 308 309 312 314 315 317 318 317 316 314 315 314 315 310 312 314 316 317 321 321 321
292 291 291 291 292 293 293 294 295 296 296 297 298 299 300 301 302 303 306 309 309 310 310 311 313 314 316 316 318 318 317 317 314 314 316 316 318 319 320 322 322 323 322
291 290 290 291 292 292 293 294 295 296 298 301 302 300 297 297 305 311 312 312 313 313 312 311 314 318 319 316 316 319 318 316 315 315 315 315 316 316 315 319 323 321 316
291 289 289 290 291 292 292 293 293 297 298 298 299 299 299 301 309 312 315 314 316 317 315 318 319 321 319 318 320 319 320 321 318 316 315 315 321 322 320 323 320 318 316
292 290 289 289 290 290 291 291 292 293 295 296 296 295 296 301 305 308 317 318 317 318 317 318 319 321 319 319 321 321 322 323 322 318 318 320 323 323 322 322 321 319 320
292 291 290 290 290 290 290 290 291 292 292 293 293 294 295 297 300 306 306 310 312 314 315 318 320 320 320 321 322 322 322 323 324 322 319 319 323 322 322 322 322 322 319
293 292 290 290 289 290 289 289 289 290 290 291 291 290 290 293 295 297 300 302 305 309 313 317 320 316 317 315 313 315 317 319 324 324 323 324 323 322 322 323 320 317 312
294 292 291 290 289 289 289 289 289 289 289 289 289 289 289 291 292 293 295 297 300 306 310 309 307 307 306 306 304 306 307 311 317 324 326 325 324 323 324 320 315 312 310
292 292 290 290 290 289 289 288 288 288 289 288 288 288 288 289 290 290 292 294 297 299 305 308 304 301 301 300 300 301 302 305 317 322 325 326 326 324 322 320 315 313 313
290 290 289 287 288 289 290 289 288 288 288 288 288 288 288 288 288 289 290 292 294 295 298 303 300 298 297 297 298 299 303 303 310 320 324 325 325 322 321 319 317 315 313
289 288 288 287 286 286 287 288 288 288 287 287 287 287 287 287 288 288 288 290 292 293 293 296 298 296 297 299 303 303 305 309 314 322 323 325 325 324 323 321 318 315 312
289 289 288 287 286 285 285 286 286 288 286 287 287 287 286 286 287 287 287 288 289 291 291 293 293 294 295 297 300 305 309 310 314 320 322 321 322 323 323 321 319 316 313
288 289 288 287 286 285 285 285 284 285 285 285 286 286 285 285 286 286 286 286 287 288 289 289 290 291 292 294 297 301 308 310 311 316 321 321 320 320 320 318 318 317 316

GFSGL_925_thetae_123.txt.gz
Theta_e
318 318 317 317 317 317 317 316 316 315 315 315 314 314 315 316 315 315 314 314 314 314 314 315 315 314 314 313 312 312 311 310 308 308 308 307 307 308 308 310 309 310 309
315 314 314 314 313 313 313 314 314 314 315 315 315 315 315 314 312 312 312 313 313 313 312 311 311 310 310 310 309 309 308 308 307 307 307 306 306 307 308 307 308 308 310
312 312 312 312 312 312 312 312 312 313 314 314 313 312 311 311 311 311 311 312 312 311 310 310 310 309 308 308 307 307 307 307 306 305 305 305 306 306 306 306 307 308 305
311 310 309 308 308 307 307 307 307 307 307 307 307 307 308 308 308 310 310 311 310 309 309 308 308 307 307 306 306 306 306 306 306 305 305 305 305 305 305 305 305 305 304
307 306 305 305 305 305 305 305 304 304 304 303 303 304 304 304 306 310 310 310 308 308 308 307 307 306 307 307 308 307 307 307 307 306 306 306 305 305 305 304 304 304 304
303 302 302 302 301 301 301 301 301 301 301 301 301 302 302 303 305 307 306 306 306 307 307 306 306 305 306 307 307 307 307 307 306 306 306 306 306 306 305 305 304 303 304
299 299 298 298 298 298 298 299 299 300 300 300 300 301 302 303 304 305 305 305 305 305 305 306 305 305 306 306 306 306 306 305 305 305 306 306 306 306 305 305 305 304 304
297 297 296 296 296 296 297 298 298 298 299 300 300 301 302 303 304 304 305 305 305 305 305 305 305 306 307 306 306 305 305 306 306 306 306 306 306 306 305 305 305 305 305
294 294 294 294 295 295 296 297 297 297 298 298 299 300 302 303 303 304 304 303 303 303 304 305 306 306 307 307 306 305 305 305 306 305 305 305 305 304 304 305 305 305 304
293 293 294 294 294 295 296 296 296 297 297 298 299 301 301 301 302 302 302 302 302 304 304 305 306 307 308 308 305 304 304 305 305 305 305 305 305 304 304 303 304 306 305
292 292 293 293 294 295 295 295 296 296 297 298 299 300 301 301 302 303 303 303 303 302 304 306 308 308 308 308 307 303 304 306 304 305 305 305 305 305 305 304 304 305 305
292 292 292 293 294 294 294 295 295 296 297 298 298 299 300 300 302 304 305 305 305 303 304 306 311 315 314 314 314 316 315 311 303 302 302 304 305 305 305 305 305 304 304
292 292 292 293 293 293 293 294 295 295 296 297 298 298 299 299 301 302 302 307 309 306 310 313 314 315 315 317 319 319 318 314 305 302 303 304 306 307 306 306 306 306 305
291 291 292 292 292 292 293 293 294 295 295 296 296 295 295 296 298 299 303 311 314 315 313 314 317 318 319 319 318 319 319 319 315 308 310 313 312 307 307 307 308 308 307
291 291 291 291 291 291 292 293 294 294 296 295 292 292 292 293 296 300 304 312 312 313 313 315 314 312 311 310 309 310 313 319 319 316 315 312 308 307 308 309 310 313 313
291 290 290 291 291 291 291 292 293 293 294 293 291 291 292 295 297 305 311 310 308 309 307 307 307 306 305 305 306 307 309 313 317 318 315 314 311 311 312 314 316 317 317
290 290 290 290 290 290 290 291 291 293 292 291 291 292 293 294 297 304 306 309 306 306 304 303 302 301 302 301 302 303 306 310 318 318 315 316 315 315 316 315 317 315 313
291 290 290 290 290 289 290 290 290 290 290 290 292 291 293 294 296 298 299 301 302 302 301 300 298 297 298 298 298 300 303 308 317 315 316 316 318 319 318 317 316 314 313
290 290 289 290 289 289 289 289 289 290 289 289 289 290 291 292 294 295 295 296 297 298 298 296 295 295 294 294 295 296 299 302 307 319 319 320 319 319 317 316 315 315 315
288 289 289 289 289 289 288 288 289 289 288 288 288 287 288 290 290 291 291 292 294 295 294 295 293 292 292 292 292 293 295 298 301 306 319 317 314 315 313 312 309 307 305
287 287 287 287 287 288 288 287 288 288 288 287 287 287 287 288 288 289 289 289 290 291 292 291 292 290 289 289 289 290 291 293 298 303 314 316 315 313 312 311 309 307 306
286 285 285 285 286 286 286 286 286 286 286 286 286 286 286 286 286 287 287 287 288 288 289 288 288 288 287 287 287 287 288 290 295 302 309 318 316 315 313 311 309 307 306
285 285 284 284 284 284 284 284 284 285 284 284 284 284 284 284 284 284 285 285 286 286 287 286 286 286 286 286 286 286 286 288 292 299 311 319 318 316 314 311 309 307 305
285 284 283 283 283 284 283 283 283 283 283 283 283 283 282 282 282 282 282 283 284 284 285 285 284 285 285 285 286 287 290 294 301 309 310 315 317 315 314 311 309 307 305
284 284 283 282 283 283 283 283 282 282 281 280 281 281 281 281 280 280 281 281 282 282 283 283 283 284 284 285 286 288 293 299 301 305 309 312 314 315 314 313 311 309 306
284 283 283 281 281 281 281 281 281 280 280 279 279 279 279 279 279 279 279 280 280 281 281 282 282 283 283 284 286 289 293 297 300 302 304 306 308 311 312 313 313 311 309

GFSGL_925_thetae_129.txt.gz
Theta_e
316 316 315 314 315 315 314 314 316 315 315 316 316 316 316 316 316 316 316 315 315 315 315 315 315 316 316 315 315 314 314 313 315 313 313 312 311 311 310 310 310 310 309
314 315 313 313 311 310 310 309 310 310 310 310 311 311 312 312 312 312 312 313 313 313 314 314 314 314 314 314 313 312 311 311 311 314 311 311 310 309 310 309 309 309 309
311 312 310 307 306 306 306 306 307 307 307 307 307 307 308 308 308 308 308 309 310 311 312 313 313 313 313 313 312 311 310 309 309 310 311 309 309 309 309 308 308 309 309
306 306 304 304 303 303 303 304 304 304 305 305 305 305 306 306 305 306 307 309 310 311 312 312 311 311 312 311 310 310 309 309 308 307 307 308 309 309 309 308 308 309 309
305 304 302 302 302 302 302 302 303 303 303 303 304 304 304 304 305 304 305 306 308 309 309 309 309 309 309 308 307 308 309 309 310 309 309 309 309 311 311 310 308 308 309
302 301 301 301 300 301 301 301 302 302 302 303 303 304 304 304 303 303 303 305 306 307 308 308 308 308 308 308 307 306 306 308 309 310 310 310 310 311 311 310 308 308 309
301 300 300 300 300 300 300 300 301 301 302 303 303 304 304 304 302 302 302 303 306 307 307 308 308 308 307 308 308 308 307 307 306 307 309 310 310 310 309 308 307 307 308
298 298 298 298 298 299 299 300 300 301 301 302 301 302 303 303 302 301 302 303 306 306 306 307 308 308 309 308 308 309 309 309 310 310 307 307 308 308 308 308 308 307 307
297 296 296 296 297 298 299 299 300 300 300 299 300 301 302 303 303 302 301 303 305 305 306 307 307 308 309 310 305 304 304 305 306 307 307 307 307 307 307 307 307 307 308
296 296 296 296 297 298 299 299 299 299 299 299 301 303 302 303 302 301 300 301 303 305 306 308 308 307 307 306 305 303 303 304 305 306 307 307 307 307 307 305 305 307 307
296 296 297 297 297 297 298 298 299 299 300 301 301 302 300 300 299 300 300 298 299 299 301 304 305 306 306 306 306 306 303 304 304 304 305 305 305 306 306 306 305 305 306
295 296 296 296 296 297 297 297 297 297 297 298 298 299 299 297 298 301 304 304 304 301 302 304 305 305 303 303 303 302 303 305 307 308 305 304 304 305 306 306 305 305 305
296 296 295 296 296 296 296 296 296 295 296 295 295 294 295 296 297 302 304 302 303 305 305 305 303 301 300 300 300 301 303 305 306 308 311 307 306 306 306 306 305 305 304
294 294 295 295 294 294 295 294 294 293 292 292 291 292 292 295 294 298 300 301 303 304 302 303 301 298 298 298 299 301 302 304 314 313 310 309 309 307 307 306 305 304 305
293 293 293 293 294 293 292 292 291 292 290 290 290 290 291 292 292 296 298 297 298 300 301 300 298 296 295 295 296 297 299 301 305 313 312 311 310 308 308 307 306 306 307
293 291 291 291 291 292 292 292 291 291 290 290 290 290 290 290 292 298 298 296 295 298 300 297 295 294 293 293 293 295 297 298 301 306 316 314 315 310 310 309 308 308 311
291 291 291 290 290 291 292 292 291 291 290 289 289 290 290 290 291 294 296 295 294 297 296 294 293 292 291 291 291 292 294 296 300 308 317 315 317 317 311 314 314 313 312
291 290 291 290 290 291 291 291 290 289 288 288 289 288 289 289 289 290 292 291 292 294 294 291 291 290 289 289 289 291 292 295 298 304 314 317 317 316 315 315 314 313 312
291 291 290 289 289 289 289 289 289 287 287 286 286 287 287 288 288 288 288 288 290 290 292 290 289 289 288 288 288 289 290 292 295 301 306 313 314 314 312 311 309 309 308
289 287 288 289 289 288 288 287 287 286 285 285 284 283 284 286 286 285 286 286 287 288 288 290 289 287 287 287 287 287 289 291 294 297 303 312 311 310 309 308 307 306 305
288 287 286 287 287 287 286 286 285 285 285 284 284 283 283 284 284 283 284 284 284 285 286 287 289 288 287 286 286 286 287 289 292 296 301 312 311 310 308 307 306 305 304
287 287 286 286 286 285 285 285 284 284 283 284 284 285 283 284 284 282 282 282 283 283 284 284 287 287 287 286 285 285 285 287 289 294 298 305 311 310 311 311 310 307 307
286 286 286 285 285 284 284 283 283 284 284 283 283 283 283 282 283 283 283 282 282 282 283 282 284 285 286 286 286 285 284 285 289 292 298 302 307 311 312 310 310 307 305
285 285 285 284 284 284 284 283 283 282 283 283 283 283 283 283 282 282 283 283 283 282 281 281 282 282 283 284 284 285 285 287 290 297 297 300 303 306 310 312 312 311 310
284 283 283 283 283 283 283 283 283 282 282 282 282 283 283 283 283 283 283 283 283 283 282 282 281 283 282 281 281 282 285 288 288 293 296 299 299 303 304 308 310 311 312
283 282 282 282 282 282 282 282 282 282 282 282 282 282 282 282 282 283 282 282 283 283 283 283 283 283 282 281 281 283 285 286 288 290 294 295 297 298 302 303 305 309 310

GFSGL_925_thetae_132.txt.gz
Theta_e
324 323 322 321 320 319 318 318 319 319 319 319 319 320 320 320 320 320 320 320 319 319 319 319 318 318 319 318 318 318 318 317 319 317 316 315 314 315 315 314 314 314 313
321 319 317 315 314 313 313 313 314 314 315 314 314 314 315 315 315 315 315 315 315 315 316 316 317 317 318 318 317 317 316 316 316 319 315 314 313 314 315 313 313 313 313
316 314 312 311 311 310 310 310 310 311 311 312 312 312 311 312 312 312 312 312 313 315 316 316 316 316 317 316 316 315 315 315 315 314 313 312 312 312 313 313 313 313 313
313 312 311 310 309 309 308 308 308 308 309 309 310 310 310 310 310 311 311 311 312 313 314 314 314 315 315 315 314 315 315 314 313 313 312 312 312 313 313 313 314 314 314
310 309 308 308 307 307 307 307 308 308 308 309 309 310 310 310 309 306 306 308 310 312 313 313 314 313 311 310 310 310 311 312 313 313 314 313 313 314 315 315 315 314 313
308 307 307 307 308 307 307 308 308 309 309 309 310 310 310 310 307 304 303 305 308 310 312 312 313 312 312 311 310 309 309 309 311 312 313 315 317 316 315 315 314 312 312
306 305 305 306 306 306 307 307 308 308 308 309 309 308 307 306 305 303 302 304 307 310 311 311 312 312 312 313 313 313 312 311 309 309 311 311 312 313 313 312 312 310 310
304 304 303 304 305 305 306 306 307 307 307 307 306 307 307 306 304 303 302 305 307 309 310 311 311 312 313 310 309 307 306 306 307 307 308 309 309 309 309 309 310 310 309
304 304 303 304 304 305 305 304 304 304 305 305 305 306 306 305 304 302 300 303 305 308 309 310 309 309 308 306 304 304 304 305 306 306 305 305 306 306 306 307 308 309 309
303 303 303 304 304 303 303 303 303 303 303 303 303 305 304 304 303 300 298 298 301 304 306 308 309 308 305 301 300 301 303 304 303 303 304 305 306 306 307 307 305 308 308
303 303 303 302 303 302 301 301 301 300 300 301 301 303 303 301 300 300 302 300 299 300 306 309 308 304 300 299 300 300 300 302 305 305 306 308 307 305 306 307 306 305 307
302 302 302 302 301 301 300 300 300 298 298 298 298 298 299 301 299 300 301 302 303 307 307 305 305 299 297 300 301 301 304 305 306 310 309 311 308 306 307 306 306 305 306
301 301 301 301 300 299 299 298 297 295 294 294 294 295 297 299 298 297 300 300 303 304 302 302 300 297 296 300 301 301 302 303 304 311 314 312 310 307 306 306 306 305 306
299 299 299 299 299 297 296 295 295 294 293 292 292 293 295 295 294 293 299 299 300 301 302 302 298 295 295 298 300 301 301 300 301 305 314 314 311 309 308 306 305 305 305
297 297 298 296 297 296 295 293 293 290 289 289 289 291 292 291 290 293 295 296 298 299 301 300 296 294 293 294 294 294 296 298 300 303 308 316 311 310 309 307 306 306 309
296 296 294 293 294 298 296 294 291 290 289 288 289 288 289 289 290 293 295 296 298 298 300 299 295 292 291 291 292 292 295 296 298 303 311 318 313 312 309 309 311 311 311
294 295 295 295 296 296 295 293 291 290 289 288 288 289 288 287 288 291 293 295 297 300 299 296 292 291 290 290 290 291 292 294 297 302 308 316 316 313 314 310 312 313 311
295 292 293 293 295 295 293 291 289 288 288 287 287 287 288 287 287 289 292 296 298 298 298 296 292 290 289 289 289 289 291 293 296 300 306 312 312 313 312 313 313 314 314
294 294 293 293 292 293 291 290 288 286 286 285 285 286 287 287 286 286 289 291 294 295 294 296 295 292 289 289 288 289 290 291 293 298 302 310 309 309 308 308 307 306 306
291 290 292 294 294 292 292 289 288 288 286 286 287 285 286 288 286 284 287 287 287 290 291 292 293 293 290 290 290 289 289 289 291 294 297 305 312 310 308 307 306 306 305
292 291 290 291 291 291 290 289 289 288 288 288 289 285 287 290 289 285 283 284 284 286 288 288 290 291 291 290 290 289 287 287 289 292 295 302 309 313 312 310 308 307 306
291 291 290 290 289 288 288 288 289 289 288 288 288 288 287 288 289 289 288 285 283 283 284 284 287 288 288 288 289 289 288 286 288 291 294 300 306 309 313 312 311 309 309
290 290 290 289 288 288 288 287 287 288 288 288 288 288 288 288 287 288 288 288 288 285 284 283 285 285 285 286 286 287 286 285 287 291 295 298 302 305 311 313 313 311 309
289 289 289 288 288 288 288 287 287 286 287 287 287 288 288 288 288 288 288 288 288 288 288 286 285 285 284 283 284 285 284 285 288 293 296 297 299 302 308 309 313 313 313
288 288 288 288 288 288 288 287 287 287 287 287 287 287 287 287 287 287 287 287 287 287 288 287 287 286 285 284 283 282 284 287 290 293 297 298 298 300 302 305 309 311 312
287 287 287 287 287 287 287 287 287 287 287 286 286 286 286 286 286 286 287 287 287 287 287 287 286 287 285 283 282 282 284 285 288 290 294 297 297 299 300 304 303 306 308

GFSGL_925_thetae_135.txt.gz
Theta_e
334 332 330 329 328 327 327 326 325 324 323 322 322 321 322 321 321 322 322 322 321 320 321 321 321 321 320 320 320 320 320 320 323 320 319 319 318 318 317 316 316 317 316
327 324 323 321 321 320 319 319 318 319 318 317 317 317 317 317 317 317 317 317 317 317 317 318 319 319 320 320 320 320 319 319 320 322 319 318 317 316 316 316 316 315 315
321 320 318 318 316 316 314 314 314 313 313 313 313 313 313 314 314 314 314 314 315 316 316 316 317 318 318 318 318 317 317 316 316 317 318 316 315 315 314 314 315 315 316
319 318 317 315 315 314 313 313 312 312 311 312 312 313 313 314 314 313 313 311 311 313 314 315 316 316 316 317 316 316 315 315 316 316 316 316 315 315 315 316 316 315 316
315 314 314 313 313 313 313 313 313 313 313 313 313 314 314 313 308 307 308 308 309 311 312 313 315 315 314 313 313 314 313 313 314 314 315 315 316 316 317 317 317 317 317
313 312 312 311 311 311 311 312 313 313 313 313 313 313 312 310 307 306 304 305 307 310 312 313 313 314 314 314 314 314 312 311 312 313 313 313 313 314 315 315 315 316 316
309 309 309 310 310 310 311 311 311 311 311 310 311 311 310 308 306 305 304 304 308 311 312 313 313 314 313 313 311 309 308 308 308 308 308 309 310 310 311 311 312 312 313
309 309 309 310 310 310 309 309 309 308 308 308 308 309 308 307 306 304 303 306 308 310 310 309 310 310 310 307 304 303 304 305 306 307 307 308 308 308 308 309 309 309 310
309 309 309 309 309 308 308 307 307 306 306 305 305 306 307 307 305 302 302 301 302 305 308 310 310 310 307 304 300 300 301 302 304 304 304 305 305 304 305 304 305 306 309
308 308 308 308 308 307 306 305 305 305 305 304 304 305 305 304 302 300 301 300 305 307 308 310 310 307 303 299 299 299 300 301 301 305 308 310 310 308 307 306 304 305 308
307 307 307 306 306 304 304 304 303 301 303 302 302 303 304 302 300 300 302 300 302 303 308 307 305 301 297 297 300 301 301 303 306 307 309 312 312 309 307 307 307 306 307
306 305 304 304 303 303 302 302 301 299 300 300 299 301 302 301 299 299 301 301 301 303 305 304 300 296 295 300 299 299 301 303 304 305 308 315 312 309 307 307 307 306 306
304 303 303 303 302 301 301 300 299 299 297 296 295 298 298 299 297 295 301 302 301 303 303 302 298 295 294 296 296 297 299 299 301 303 307 310 312 311 308 306 305 305 305
301 302 301 301 300 299 298 297 294 293 293 294 293 294 295 295 293 292 298 300 298 302 303 298 295 294 294 294 295 295 296 297 299 303 305 309 312 310 307 306 305 305 306
300 300 299 299 301 299 295 293 293 289 288 289 288 291 292 291 290 291 295 297 298 300 301 299 295 294 293 293 293 294 295 296 298 301 306 312 313 309 311 307 307 310 310
298 298 297 298 301 299 298 294 291 290 288 288 288 287 289 288 290 294 297 298 299 301 302 297 294 293 292 291 292 292 293 295 296 300 305 312 314 313 310 312 312 312 312
297 297 298 300 300 298 296 292 291 290 289 287 288 288 288 288 290 293 297 299 299 302 303 297 294 293 292 292 291 291 291 292 294 299 302 309 310 311 312 313 314 314 313
297 295 297 298 299 297 295 292 289 288 287 287 288 288 288 288 289 291 293 297 299 297 298 298 296 294 293 292 292 291 290 291 292 296 299 305 309 308 308 308 306 308 307
297 298 298 298 297 297 295 291 290 288 288 288 288 290 290 289 287 286 289 292 294 293 292 292 293 293 293 291 291 292 291 290 291 295 297 303 310 309 307 306 306 305 304
293 293 295 297 297 297 296 295 293 292 291 291 289 290 291 293 293 288 286 286 287 290 290 291 291 290 290 290 291 292 291 290 290 293 295 301 306 311 310 309 307 306 303
295 294 293 293 293 293 294 293 291 291 291 291 291 290 290 293 293 294 292 288 287 285 286 288 290 289 289 289 290 290 291 290 290 293 294 300 304 308 313 312 310 309 306
294 293 293 292 292 291 291 291 291 291 291 291 291 291 291 292 292 292 292 292 291 289 287 287 288 289 287 287 288 288 288 288 290 292 294 299 302 304 309 313 312 310 307
293 293 292 292 292 291 291 290 290 290 290 291 291 291 291 291 291 291 291 291 292 291 291 290 289 288 288 286 286 287 287 286 288 291 293 300 301 303 307 308 312 313 308
292 292 292 291 291 291 291 291 290 289 290 290 290 290 290 291 291 291 291 291 291 291 291 290 290 289 287 286 285 285 285 287 287 291 295 300 301 301 305 305 309 311 313
291 291 291 292 291 292 291 291 290 290 289 289 290 290 290 290 290 290 290 290 290 290 290 290 289 289 286 284 283 283 286 288 291 292 294 298 298 300 302 303 304 307 308
291 291 291 291 290 290 290 290 290 290 289 289 289 289 289 289 289 289 289 289 289 289 289 289 289 289 286 283 282 282 284 287 289 291 293 294 295 299 299 300 300 301 302

GFSGL_925_thetae_138.txt.gz
Theta_e
337 335 334 332 330 329 328 327 325 324 323 322 321 321 321 321 320 320 320 320 319 318 318 318 319 319 320 321 322 322 321 321 322 321 320 319 317 318 319 318 318 317 317
329 326 325 324 322 321 320 319 319 318 317 316 317 316 316 315 315 315 315 315 316 317 317 316 317 318 318 318 319 319 319 317 317 316 316 317 317 318 317 317 316 315 315
324 322 320 319 318 316 316 315 314 314 314 314 314 314 314 314 315 315 314 312 312 311 312 313 315 316 317 317 316 317 316 315 316 317 317 316 316 317 317 316 316 316 316
320 319 318 317 316 316 315 315 315 315 315 314 315 315 315 314 311 309 308 308 309 309 310 312 313 313 315 314 314 315 315 315 315 315 314 314 315 315 315 316 316 316 316
317 316 316 315 314 314 314 314 315 315 315 315 315 314 313 311 307 306 305 305 306 308 310 311 313 313 313 314 314 313 312 312 312 312 313 313 314 314 314 315 315 315 316
314 313 313 313 313 313 313 314 313 313 312 312 312 311 309 307 307 306 305 305 305 308 312 313 313 313 313 312 311 311 308 306 307 308 308 309 309 310 310 311 312 313 313
311 311 312 312 312 312 311 311 310 309 309 308 308 308 308 306 306 305 305 306 307 309 309 308 309 310 311 307 305 305 306 304 304 304 306 307 308 308 308 309 309 310 310
311 311 311 311 311 310 309 308 308 307 306 306 306 306 307 306 304 303 304 303 303 307 309 309 311 310 306 301 300 300 301 303 305 303 304 304 305 306 306 306 307 307 306
311 310 310 310 309 308 308 307 306 306 305 305 304 306 306 305 302 302 302 301 305 305 306 308 308 304 300 299 298 298 299 301 302 303 307 309 311 312 311 305 303 304 305
310 309 309 308 307 306 305 304 303 303 304 304 304 305 304 302 300 302 301 301 302 302 306 306 304 299 296 298 298 297 298 298 300 304 307 309 310 312 309 308 307 304 305
308 307 307 306 305 304 303 303 302 302 302 300 301 303 302 300 299 301 301 301 300 302 305 303 298 296 295 296 296 296 296 299 300 302 305 308 311 312 309 308 307 307 306
306 305 305 304 303 302 301 301 300 300 300 298 299 300 300 298 297 299 299 300 302 303 302 298 296 295 295 295 295 296 297 298 300 301 304 306 308 311 307 306 306 306 306
304 304 303 302 301 300 299 297 296 296 296 295 295 296 297 297 294 295 297 299 301 301 301 298 296 295 295 295 295 295 297 297 298 300 302 306 311 310 307 306 306 306 306
303 302 303 302 299 297 296 294 292 291 292 292 292 293 294 293 292 293 297 299 301 301 300 297 296 295 295 295 295 295 295 296 297 298 303 308 313 311 309 307 306 306 307
301 300 300 302 299 296 293 292 291 288 288 289 288 290 291 290 290 294 296 299 299 301 300 296 295 295 295 294 294 294 294 295 296 297 302 306 311 312 311 310 310 311 310
300 300 300 301 300 297 295 292 290 288 288 288 288 287 288 290 293 296 299 298 299 300 301 297 295 294 293 293 293 294 293 293 294 297 300 304 309 309 308 308 313 311 312
298 299 300 300 299 296 293 291 290 289 289 289 290 289 288 289 293 295 297 297 295 293 294 294 294 293 292 291 292 293 293 292 293 296 299 303 309 308 307 306 306 307 307
298 299 300 300 299 297 293 290 289 289 289 289 291 291 292 292 291 290 292 293 292 292 291 292 291 291 291 290 292 292 293 293 293 296 298 302 305 310 308 306 304 304 305
299 299 299 299 298 297 293 292 292 292 292 290 291 292 292 294 293 292 291 288 288 289 290 291 291 290 290 290 290 291 292 292 293 295 297 301 305 308 309 308 307 302 302
295 295 297 298 297 296 295 294 294 293 293 292 291 291 293 295 294 294 293 292 289 288 288 290 291 290 289 289 289 290 290 291 291 294 296 300 303 306 309 309 307 302 302
295 294 294 293 294 294 294 293 293 293 293 293 291 292 293 293 294 293 294 294 292 290 290 290 289 289 288 287 287 288 288 288 288 291 294 298 303 304 307 310 307 306 303
295 294 293 293 292 292 292 292 292 292 292 292 292 292 292 292 292 293 293 293 293 292 291 291 289 287 286 286 285 286 286 286 287 289 292 297 302 303 305 307 311 307 305
294 293 293 293 293 292 292 291 291 291 291 291 291 291 291 291 291 291 292 292 292 292 291 291 288 286 285 284 284 284 285 286 288 288 292 297 300 301 303 303 306 307 306
294 294 293 293 292 292 292 292 291 290 291 291 291 291 291 291 291 291 290 291 291 291 290 290 289 286 284 283 283 285 287 289 290 292 293 296 296 299 301 301 302 303 304
293 293 293 293 293 292 292 292 291 291 290 290 290 290 290 290 289 290 290 289 290 290 290 288 288 286 283 282 282 284 287 288 289 291 292 292 293 296 300 299 300 300 300
292 292 292 292 292 291 291 291 290 291 290 290 290 289 289 288 289 288 289 288 288 288 288 288 287 286 284 281 282 282 285 286 287 289 290 290 292 292 295 299 299 299 299

GFSGL_925_thetae_141.txt.gz
Theta_e
333 331 331 329 329 329 327 325 323 322 320 319 318 318 316 315 315 315 315 315 315 315 315 313 313 314 315 316 316 317 318 318 317 316 315 314 315 315 315 316 316 317 317
324 325 323 325 324 322 320 319 317 316 314 313 313 313 314 315 314 313 312 311 311 310 310 310 311 312 313 313 314 315 315 315 315 314 314 314 315 315 314 314 315 316 316
321 321 319 317 315 315 313 313 314 314 314 315 315 315 314 312 311 309 309 308 307 307 308 309 310 312 313 314 313 314 314 314 314 314 314 314 313 313 313 314 314 314 315
318 317 316 316 316 315 315 315 315 315 314 314 313 312 311 310 308 307 306 306 306 306 308 310 312 313 314 313 312 312 310 309 310 311 311 311 311 311 312 313 314 314 315
316 315 314 314 314 314 314 314 313 313 312 311 311 310 309 308 306 306 305 306 307 308 310 310 310 310 311 310 306 305 305 305 306 307 308 308 308 308 309 309 310 310 311
314 313 313 313 312 311 311 310 309 309 308 308 308 308 307 306 305 304 304 305 305 307 308 309 309 310 309 306 305 304 301 302 303 304 305 305 306 306 307 308 309 309 309
312 312 311 311 310 309 308 307 306 306 305 306 306 307 306 305 303 303 305 305 306 306 307 308 309 304 301 300 300 301 302 302 301 302 303 304 304 305 305 306 306 307 308
311 310 309 309 308 307 306 306 306 305 304 304 305 306 305 303 302 302 304 303 304 306 307 306 302 299 297 296 297 298 299 300 300 300 301 301 302 304 304 304 304 304 304
309 308 307 306 305 304 304 303 304 304 303 304 305 304 302 300 300 302 302 302 303 304 303 301 298 296 295 296 296 296 296 297 300 301 304 305 306 309 311 310 305 304 305
307 306 305 304 304 303 302 302 302 302 301 302 303 301 300 299 300 300 299 301 302 302 301 299 297 296 296 296 295 295 295 297 299 302 307 309 309 310 310 309 308 307 305
305 305 304 303 302 301 300 299 300 298 298 299 299 299 298 297 299 299 300 300 301 301 300 298 297 296 296 296 295 295 296 297 299 300 302 304 307 310 308 306 306 306 306
304 303 301 300 299 297 296 296 296 295 295 295 296 296 296 295 298 299 301 301 300 300 299 298 296 296 296 296 296 296 297 297 298 299 301 304 307 310 309 307 306 306 306
303 301 299 298 297 295 294 293 294 293 292 292 292 293 292 293 296 299 299 300 301 300 298 296 296 296 296 296 296 296 297 296 297 298 300 304 307 311 310 307 307 306 308
302 301 299 297 295 294 292 291 291 291 290 289 289 290 290 291 294 297 297 298 302 300 297 296 294 295 295 295 297 297 296 295 296 297 300 303 308 308 309 309 308 308 307
301 301 299 297 295 293 291 290 289 289 288 288 288 289 288 290 293 295 294 294 296 295 294 294 292 292 292 293 294 294 295 295 295 296 300 302 307 307 307 307 310 311 308
300 301 299 296 294 293 292 290 290 290 290 290 290 290 289 290 295 295 294 292 293 292 292 291 291 291 291 291 292 293 294 294 294 296 299 301 306 308 307 305 305 307 309
300 300 298 296 293 291 290 290 290 290 291 291 292 292 292 292 291 291 291 291 291 291 292 291 290 290 290 289 290 291 292 293 293 295 298 300 304 307 309 306 304 304 304
299 299 298 297 294 292 292 292 292 291 291 291 292 293 294 293 293 292 291 290 290 290 290 291 290 289 288 288 288 289 290 290 291 293 296 298 303 306 309 304 302 302 303
298 299 298 297 295 294 293 293 293 292 292 292 292 293 294 293 294 293 292 291 290 290 290 289 288 287 287 286 286 287 288 288 288 290 293 295 301 305 308 306 303 302 301
294 296 296 297 295 294 294 294 293 292 292 292 292 293 293 293 293 292 293 292 291 291 289 288 286 286 285 285 285 286 286 287 288 289 291 293 300 303 305 308 306 303 301
293 293 292 292 292 293 292 292 292 292 292 292 291 292 291 292 292 293 291 292 291 291 289 287 285 285 284 284 284 285 286 286 287 288 290 293 298 302 303 304 307 305 302
293 293 292 291 291 291 291 291 291 291 291 291 291 291 290 290 290 291 292 291 290 290 289 288 285 283 283 283 283 284 284 286 287 289 291 293 295 300 301 302 303 305 305
293 293 293 293 292 291 290 291 291 291 291 290 290 290 290 290 290 289 290 290 290 289 289 287 286 283 282 283 284 284 284 286 288 289 290 291 293 295 299 300 301 301 303
293 292 292 292 292 291 291 290 290 290 290 289 289 289 289 288 289 288 288 289 288 288 287 287 286 284 282 282 283 284 285 286 287 289 289 290 291 293 297 299 299 300 300
292 292 292 292 292 291 291 291 290 289 290 290 288 288 288 287 287 288 287 287 287 287 286 285 285 284 281 281 281 283 284 285 286 287 288 289 290 292 293 297 299 298 299
291 291 291 290 290 290 289 289 289 289 288 288 288 288 287 287 286 287 286 286 286 285 285 284 284 283 281 281 281 282 283 284 285 286 287 288 289 291 292 293 296 297 296

GFSGL_925_thetae_144.txt.gz
Theta_e
332 329 331 331 327 327 324 321 320 320 319 317 315 315 314 313 313 313 312 310 310 309 309 308 309 310 311 312 313 314 313 313 313 313 313 313 313 314 314 314 313 313 313
325 325 322 326 323 321 318 315 314 312 313 313 314 313 312 311 310 309 308 307 306 306 306 308 310 312 312 313 313 313 313 313 312 312 312 313 313 313 313 313 313 312 313
322 319 315 314 313 314 314 315 314 314 314 313 312 311 310 309 308 306 306 307 308 308 309 310 310 311 311 312 310 310 310 309 308 309 310 310 309 310 310 310 311 311 312
315 315 315 314 315 314 314 313 313 313 312 311 309 308 307 306 306 306 307 307 307 308 309 309 309 309 310 308 305 304 304 303 304 305 307 307 308 308 308 309 309 310 310
313 313 313 313 313 312 312 310 310 309 309 308 307 306 305 305 305 305 306 306 307 308 308 308 309 309 306 302 300 300 299 300 301 302 303 304 305 306 307 307 307 308 308
312 311 311 311 310 309 307 306 306 306 306 306 306 305 305 304 303 305 305 306 307 306 306 306 306 303 299 296 296 297 298 299 300 301 302 303 303 304 304 305 306 306 308
310 309 308 308 306 306 305 305 304 304 304 305 306 304 303 302 303 304 304 305 305 304 303 303 299 296 296 295 297 297 298 298 298 299 300 301 302 302 302 303 304 305 306
308 307 306 305 305 305 305 304 304 304 304 305 304 302 301 300 302 303 304 303 303 302 300 298 297 296 296 296 298 297 297 298 298 298 298 300 301 302 304 304 303 304 304
305 305 304 303 303 303 302 303 302 303 304 303 301 300 299 300 300 302 302 301 301 300 299 298 297 296 297 297 297 296 297 299 301 302 304 305 307 308 309 308 307 307 307
304 304 303 303 302 301 301 301 300 300 301 300 299 298 297 299 299 301 301 300 301 300 299 298 297 297 297 297 296 296 295 296 297 301 307 308 308 310 310 307 306 306 307
302 302 301 300 299 298 299 298 297 298 299 298 297 297 297 297 299 300 299 300 300 299 298 297 297 297 297 297 297 296 296 297 298 299 301 303 306 308 310 307 305 306 307
300 299 297 297 296 296 296 296 296 296 296 295 295 296 296 297 298 299 300 301 299 297 296 295 296 296 295 296 297 298 299 298 298 298 300 302 304 308 308 308 306 307 307
298 297 296 295 294 295 296 295 294 293 293 292 291 292 293 295 296 297 299 300 297 297 295 293 294 295 295 296 296 297 298 297 297 297 299 301 303 307 307 307 309 307 307
297 295 294 294 293 293 292 291 291 290 289 289 289 290 292 293 294 294 295 295 293 294 292 291 291 292 292 292 294 295 294 295 295 296 298 300 303 307 307 305 307 310 308
297 295 294 293 292 291 291 290 291 291 291 290 289 289 289 291 291 291 292 292 292 291 290 289 289 289 290 290 291 292 292 293 293 294 297 299 303 306 307 304 305 307 308
297 295 294 293 291 291 291 291 291 292 292 293 292 292 291 290 290 291 291 291 291 291 290 289 288 288 288 287 288 289 290 290 291 293 295 298 301 306 304 303 303 304 304
297 294 292 292 291 290 291 291 293 293 293 293 294 293 293 291 291 291 290 290 289 288 289 288 287 286 286 286 286 287 288 288 289 291 293 296 299 305 306 303 302 302 302
297 295 294 293 293 292 292 292 292 292 292 293 293 293 293 292 292 291 291 290 290 288 287 286 285 285 285 285 285 286 286 287 288 289 292 294 297 304 306 305 302 301 301
298 296 295 294 293 293 293 292 292 292 292 292 293 293 292 291 292 291 291 290 289 288 286 285 284 284 284 284 285 285 285 286 286 288 290 292 296 301 303 305 305 302 301
298 297 295 294 293 293 293 292 292 291 291 291 291 291 292 292 292 290 290 290 288 287 285 283 283 283 283 283 284 284 285 286 286 287 289 290 294 299 302 303 304 304 302
293 294 293 292 292 291 291 291 291 291 291 290 290 290 290 290 290 290 289 289 288 286 285 283 282 282 282 283 283 284 285 285 286 287 288 290 293 295 300 301 302 304 304
291 291 291 291 291 291 290 290 290 290 290 289 290 289 289 289 289 289 288 288 287 286 285 283 281 281 281 282 282 283 283 285 286 287 288 289 291 293 298 300 300 301 302
292 291 290 290 290 290 290 290 289 289 289 289 288 288 288 287 288 288 287 286 285 285 284 284 282 281 281 282 282 282 283 283 285 286 287 288 289 291 294 298 298 299 300
292 291 291 291 290 290 290 290 289 288 288 288 288 287 287 287 286 286 286 286 285 284 283 283 282 280 281 281 282 282 283 284 286 287 288 288 289 290 292 296 296 297 298
292 291 291 291 290 290 289 289 289 289 288 287 287 287 286 286 286 285 285 284 284 283 283 282 282 280 280 280 281 282 282 284 285 288 289 289 289 290 290 291 295 295 296
291 290 290 289 289 289 289 289 288 287 287 286 286 286 285 285 285 284 284 283 283 282 282 281 281 280 280 280 280 281 282 283 284 285 288 289 289 289 289 290 292 293 294

GFSGL_925_thetae_147.txt.gz
Theta_e
327 326 326 326 324 321 318 317 317 316 316 315 314 312 312 311 311 310 308 307 308 308 308 310 311 311 311 311 312 311 311 311 311 312 311 310 310 311 311 311 311 311 311
322 322 324 325 322 318 315 314 313 313 313 312 311 311 310 309 308 307 307 308 309 309 309 309 309 309 310 310 308 308 308 308 308 308 307 308 308 308 309 309 309 310 310
318 315 313 314 314 314 314 314 313 312 311 310 310 308 307 306 307 307 307 307 308 308 308 308 308 308 308 304 303 302 302 302 302 303 304 305 305 306 307 307 308 308 309
314 313 312 312 312 312 312 312 311 310 310 308 307 306 305 306 307 307 307 307 307 307 307 307 307 305 302 300 299 299 299 299 300 301 302 303 303 304 305 306 306 306 307
312 311 310 310 310 310 310 309 308 308 306 306 305 305 305 306 305 306 306 306 305 304 304 304 302 301 299 299 298 298 298 298 299 300 300 301 302 303 304 304 304 305 305
309 308 308 307 307 306 306 305 305 306 305 305 304 305 305 303 303 304 304 305 304 302 300 300 299 298 297 297 297 297 298 298 298 299 299 300 301 301 302 302 302 304 305
307 306 306 305 305 304 304 304 304 305 305 304 303 303 302 302 303 304 304 303 302 300 299 299 298 297 297 298 301 298 298 297 298 298 299 299 299 300 300 301 302 303 305
305 305 304 304 304 304 304 304 304 304 303 302 301 300 300 300 302 302 302 301 301 300 299 298 297 298 297 299 300 297 300 300 299 298 298 300 301 304 304 303 303 304 305
303 303 303 303 302 302 302 302 303 303 302 300 299 299 299 300 301 301 301 301 301 300 298 298 297 297 297 297 298 296 299 300 302 302 303 304 305 306 308 307 306 306 306
302 302 302 301 301 301 300 300 301 301 300 299 298 297 298 299 299 299 300 300 300 299 298 298 298 298 298 298 296 295 296 297 298 302 305 304 305 306 307 308 306 306 306
301 300 299 299 299 299 299 299 299 299 299 298 297 297 297 297 297 298 300 298 297 296 296 296 296 297 297 297 295 295 295 297 298 298 299 301 302 304 307 307 307 307 307
298 297 297 297 296 297 297 297 297 297 297 296 296 296 296 296 296 297 296 295 296 294 292 292 293 295 297 297 296 297 296 296 297 297 298 300 301 303 306 306 309 308 307
296 295 295 295 296 296 296 295 294 294 294 293 292 293 294 294 295 295 294 292 292 291 290 291 292 294 296 298 295 296 295 294 294 295 296 299 300 304 305 306 308 309 308
295 294 294 293 292 292 292 291 291 291 290 290 290 290 291 291 291 291 292 293 292 290 290 290 290 292 292 294 295 293 292 291 292 293 295 297 300 305 303 303 305 305 306
294 293 292 291 292 292 292 292 292 292 292 291 290 290 290 290 290 289 289 290 290 289 289 288 288 289 289 289 290 290 290 290 291 292 293 296 298 304 304 302 302 303 303
293 292 292 292 292 292 292 292 292 293 293 292 292 291 291 291 290 289 288 287 287 287 287 286 286 286 285 285 285 286 287 288 289 290 292 294 297 303 305 303 302 302 302
293 292 290 291 292 293 294 293 292 292 292 293 293 293 292 291 291 290 288 287 286 286 285 285 285 284 284 284 284 284 285 286 288 289 291 292 294 301 303 305 302 301 301
294 293 291 291 292 292 292 292 292 292 292 292 291 291 291 290 290 289 288 286 285 284 284 284 283 283 283 283 283 283 285 286 287 288 289 291 293 298 302 303 304 302 301
294 293 293 293 292 291 291 291 291 291 291 291 292 291 290 290 289 288 287 286 285 284 282 282 282 282 282 283 283 283 283 284 285 286 288 289 292 295 301 301 302 304 302
294 293 293 293 292 292 291 290 290 290 290 290 290 290 290 289 289 287 286 285 284 283 281 281 281 281 282 282 282 282 283 284 285 286 287 288 290 293 297 300 301 302 302
295 294 292 291 291 291 291 290 290 290 289 288 288 289 289 288 287 287 286 284 284 283 281 280 280 281 281 281 281 282 283 284 285 285 286 288 289 291 294 298 299 300 300
293 291 291 290 290 290 290 290 289 289 288 288 287 288 288 287 287 286 285 284 283 283 282 281 280 280 281 281 280 281 281 283 285 286 287 288 289 290 292 296 297 299 300
291 291 290 290 290 289 289 289 289 288 287 287 287 287 286 286 285 285 285 284 283 282 282 281 280 280 280 281 280 281 280 281 283 285 286 287 288 290 291 293 295 296 298
290 290 290 289 289 289 288 288 288 288 287 286 286 286 286 285 285 284 284 283 282 282 281 281 280 280 280 280 281 281 282 283 285 287 287 288 288 290 291 290 292 294 295
290 290 290 289 289 289 289 288 287 287 286 286 285 285 285 284 284 284 283 282 281 281 280 280 280 280 280 280 281 281 282 283 286 288 288 288 288 289 289 290 290 291 292
290 290 290 290 289 288 288 287 287 286 286 285 285 284 284 283 283 282 282 281 280 280 280 280 280 280 280 280 280 281 282 283 285 287 288 288 288 288 289 289 290 289 290